· 6 years ago · Mar 07, 2020, 10:36 AM
12020-03-07 11:30:55.035 T:140059770318016 DEBUG: Keyboard: scancode: 0x20, sym: 0x006f, unicode: 0x0000, modifier: 0x41
22020-03-07 11:30:55.076 T:140059770318016 DEBUG: Keyboard: scancode: 0x25, sym: 0x0132, unicode: 0x0000, modifier: 0x1
32020-03-07 11:30:55.076 T:140059770318016 DEBUG: Keyboard: scancode: 0x32, sym: 0x0130, unicode: 0x0000, modifier: 0x0
42020-03-07 11:30:56.952 T:140059770318016 DEBUG: Keyboard: scancode: 0x41, sym: 0x0020, unicode: 0x0020, modifier: 0x0
52020-03-07 11:30:56.952 T:140059770318016 DEBUG: HandleKey: space (0xf020) pressed, action is Pause
62020-03-07 11:30:56.952 T:140059770318016 DEBUG: ------ Window Init (DialogSeekBar.xml) ------
72020-03-07 11:30:56.998 T:140058212431616 DEBUG: CDVDAudio::Pause - pausing audio stream
82020-03-07 11:30:57.036 T:140059770318016 DEBUG: Keyboard: scancode: 0x41, sym: 0x0020, unicode: 0x0000, modifier: 0x0
92020-03-07 11:30:57.327 T:140059770318016 DEBUG: Uninhibiting OS screen saver
102020-03-07 11:30:57.327 T:140058188756736 DEBUG: Thread Timer 140058188756736 terminating
11pi@wired:~/.kodi/temp$ cat kodi.log
122020-03-07 11:30:41.041 T:140059770291968 DEBUG: Thread Announce start, auto delete: false
132020-03-07 11:30:41.041 T:140059770318016 NOTICE: -----------------------------------------------------------------------
142020-03-07 11:30:41.041 T:140059770318016 NOTICE: Starting Kodi (18.5 Git:20191123-nogitfound). Platform: Linux x86 64-bit
152020-03-07 11:30:41.041 T:140059770318016 NOTICE: Using Unknown Kodi x64 build
162020-03-07 11:30:41.041 T:140059770318016 NOTICE: Kodi compiled 2019-11-23 by GCC 8.3.0 for Linux x86 64-bit version 4.19.67 (267075)
172020-03-07 11:30:41.041 T:140059770318016 NOTICE: Running on Debian GNU/Linux 10 (buster), kernel: Linux x86 64-bit version 4.19.0-8-amd64
182020-03-07 11:30:41.041 T:140059770318016 NOTICE: FFmpeg version/source: 4.1.5
192020-03-07 11:30:41.041 T:140059770318016 NOTICE: Host CPU: Intel(R) Core(TM) i3-7100 CPU @ 3.90GHz, 4 cores available
202020-03-07 11:30:41.041 T:140059770318016 NOTICE: special://xbmc/ is mapped to: /usr/share/kodi
212020-03-07 11:30:41.041 T:140059770318016 NOTICE: special://xbmcbin/ is mapped to: /usr/lib/x86_64-linux-gnu/kodi
222020-03-07 11:30:41.041 T:140059770318016 NOTICE: special://xbmcbinaddons/ is mapped to: /usr/lib/x86_64-linux-gnu/kodi/addons
232020-03-07 11:30:41.041 T:140059770318016 NOTICE: special://masterprofile/ is mapped to: /home/pi/.kodi/userdata
242020-03-07 11:30:41.041 T:140059770318016 NOTICE: special://envhome/ is mapped to: /home/pi
252020-03-07 11:30:41.041 T:140059770318016 NOTICE: special://home/ is mapped to: /home/pi/.kodi
262020-03-07 11:30:41.041 T:140059770318016 NOTICE: special://temp/ is mapped to: /home/pi/.kodi/temp
272020-03-07 11:30:41.041 T:140059770318016 NOTICE: special://logpath/ is mapped to: /home/pi/.kodi/temp
282020-03-07 11:30:41.041 T:140059770318016 NOTICE: The executable running is: /usr/lib/x86_64-linux-gnu/kodi/kodi-x11
292020-03-07 11:30:41.041 T:140059770318016 NOTICE: Local hostname: wired
302020-03-07 11:30:41.041 T:140059770318016 NOTICE: Log File is located: /home/pi/.kodi/temp/kodi.log
312020-03-07 11:30:41.041 T:140059770318016 NOTICE: -----------------------------------------------------------------------
322020-03-07 11:30:41.042 T:140059770318016 INFO: loading settings
332020-03-07 11:30:41.042 T:140059770318016 NOTICE: special://profile/ is mapped to: special://masterprofile/
342020-03-07 11:30:41.045 T:140059770318016 DEBUG: CSkinSettings: no <skinsettings> tag found
352020-03-07 11:30:41.045 T:140059770318016 NOTICE: No settings file to load (special://xbmc/system/advancedsettings.xml)
362020-03-07 11:30:41.045 T:140059770318016 NOTICE: No settings file to load (special://masterprofile/advancedsettings.xml)
372020-03-07 11:30:41.045 T:140059770318016 NOTICE: Default Video Player: VideoPlayer
382020-03-07 11:30:41.045 T:140059770318016 NOTICE: Default Audio Player: paplayer
392020-03-07 11:30:41.045 T:140059770318016 NOTICE: Enabled debug logging due to GUI setting (2)
402020-03-07 11:30:41.045 T:140059770318016 NOTICE: Log level changed to "LOG_LEVEL_DEBUG_FREEMEM"
412020-03-07 11:30:41.045 T:140059770318016 NOTICE: CMediaSourceSettings: loading media sources from special://masterprofile/sources.xml
422020-03-07 11:30:41.046 T:140059770318016 INFO: creating subdirectories
432020-03-07 11:30:41.046 T:140059770318016 INFO: userdata folder: special://masterprofile/
442020-03-07 11:30:41.046 T:140059770318016 INFO: recording folder:
452020-03-07 11:30:41.046 T:140059770318016 INFO: screenshots folder:
462020-03-07 11:30:41.050 T:140059770318016 NOTICE: PulseAudio: Server found running - will try to use Pulse
472020-03-07 11:30:41.050 T:140059621717760 DEBUG: Thread Lirc start, auto delete: false
482020-03-07 11:30:41.050 T:140059621717760 INFO: Loading special://xbmc/system/Lircmap.xml
492020-03-07 11:30:41.051 T:140059770318016 NOTICE: Running database version Addons27
502020-03-07 11:30:41.051 T:140059621717760 INFO: * Adding remote mapping for device 'mceusb'
512020-03-07 11:30:41.051 T:140059621717760 INFO: * Adding remote mapping for device 'XboxDVDDongle'
522020-03-07 11:30:41.051 T:140059621717760 INFO: * Adding remote mapping for device 'Microsoft_Xbox'
532020-03-07 11:30:41.051 T:140059621717760 INFO: * Adding remote mapping for device 'PinnacleSysPCTVRemote'
542020-03-07 11:30:41.051 T:140059621717760 INFO: * Adding remote mapping for device 'anysee'
552020-03-07 11:30:41.051 T:140059621717760 INFO: * Adding remote mapping for device 'iMON-PAD'
562020-03-07 11:30:41.051 T:140059621717760 INFO: * Adding remote mapping for device 'Antec_Veris_RM200'
572020-03-07 11:30:41.051 T:140059621717760 INFO: * Adding remote mapping for device 'MCE_via_iMON'
582020-03-07 11:30:41.051 T:140059621717760 INFO: * Adding remote mapping for device 'TwinHanRemote'
592020-03-07 11:30:41.051 T:140059621717760 INFO: * Adding remote mapping for device 'linux-input-layer'
602020-03-07 11:30:41.051 T:140059621717760 INFO: * Linking remote mapping for 'linux-input-layer' to 'cx23885_remote'
612020-03-07 11:30:41.051 T:140059621717760 INFO: * Adding remote mapping for device 'mediacenter'
622020-03-07 11:30:41.051 T:140059621717760 INFO: * Adding remote mapping for device 'devinput'
632020-03-07 11:30:41.051 T:140059621717760 INFO: * Adding remote mapping for device 'devinput-32'
642020-03-07 11:30:41.051 T:140059621717760 INFO: * Adding remote mapping for device 'devinput-64'
652020-03-07 11:30:41.051 T:140059621717760 INFO: * Adding remote mapping for device 'Streamzap_PC_Remote'
662020-03-07 11:30:41.051 T:140059621717760 DEBUG: CIRTranslator::Load - no userdata Lircmap.xml found, skipping
672020-03-07 11:30:41.055 T:140059770318016 INFO: ADDON: cpluff: 'Could not read plug-in directory /usr/lib/x86_64-linux-gnu/kodi/addons: No such file or directory'
682020-03-07 11:30:41.056 T:140059770318016 DEBUG: ADDON: cpluff: 'Not all directories were successfully scanned.'
692020-03-07 11:30:41.056 T:140059770318016 NOTICE: ADDON: audioencoder.kodi.builtin.aac v1.0.0 installed
702020-03-07 11:30:41.056 T:140059770318016 NOTICE: ADDON: audioencoder.kodi.builtin.wma v1.0.0 installed
712020-03-07 11:30:41.056 T:140059770318016 NOTICE: ADDON: game.controller.default v1.0.8 installed
722020-03-07 11:30:41.056 T:140059770318016 NOTICE: ADDON: game.controller.snes v1.0.8 installed
732020-03-07 11:30:41.056 T:140059770318016 NOTICE: ADDON: inputstream.adaptive v2.4.3 installed
742020-03-07 11:30:41.056 T:140059770318016 NOTICE: ADDON: inputstream.rtmp v2.0.9 installed
752020-03-07 11:30:41.056 T:140059770318016 NOTICE: ADDON: kodi.binary.global.audioengine v1.0.1 installed
762020-03-07 11:30:41.056 T:140059770318016 NOTICE: ADDON: kodi.binary.global.filesystem v1.0.2 installed
772020-03-07 11:30:41.056 T:140059770318016 NOTICE: ADDON: kodi.binary.global.general v1.0.3 installed
782020-03-07 11:30:41.056 T:140059770318016 NOTICE: ADDON: kodi.binary.global.gui v5.12.0 installed
792020-03-07 11:30:41.056 T:140059770318016 NOTICE: ADDON: kodi.binary.global.main v1.0.14 installed
802020-03-07 11:30:41.056 T:140059770318016 NOTICE: ADDON: kodi.binary.global.network v1.0.0 installed
812020-03-07 11:30:41.056 T:140059770318016 NOTICE: ADDON: kodi.binary.instance.audiodecoder v2.0.0 installed
822020-03-07 11:30:41.056 T:140059770318016 NOTICE: ADDON: kodi.binary.instance.audioencoder v2.0.0 installed
832020-03-07 11:30:41.056 T:140059770318016 NOTICE: ADDON: kodi.binary.instance.game v1.1.0 installed
842020-03-07 11:30:41.056 T:140059770318016 NOTICE: ADDON: kodi.binary.instance.imagedecoder v2.0.0 installed
852020-03-07 11:30:41.056 T:140059770318016 NOTICE: ADDON: kodi.binary.instance.inputstream v2.0.8 installed
862020-03-07 11:30:41.056 T:140059770318016 NOTICE: ADDON: kodi.binary.instance.peripheral v1.3.7 installed
872020-03-07 11:30:41.056 T:140059770318016 NOTICE: ADDON: kodi.binary.instance.pvr v5.10.3 installed
882020-03-07 11:30:41.056 T:140059770318016 NOTICE: ADDON: kodi.binary.instance.screensaver v2.0.0 installed
892020-03-07 11:30:41.056 T:140059770318016 NOTICE: ADDON: kodi.binary.instance.vfs v2.0.0 installed
902020-03-07 11:30:41.056 T:140059770318016 NOTICE: ADDON: kodi.binary.instance.videocodec v1.0.1 installed
912020-03-07 11:30:41.056 T:140059770318016 NOTICE: ADDON: kodi.binary.instance.visualization v2.0.1 installed
922020-03-07 11:30:41.056 T:140059770318016 NOTICE: ADDON: kodi.resource v1.0.0 installed
932020-03-07 11:30:41.056 T:140059770318016 NOTICE: ADDON: metadata.album.universal v3.1.2 installed
942020-03-07 11:30:41.056 T:140059770318016 NOTICE: ADDON: metadata.artists.universal v4.3.2 installed
952020-03-07 11:30:41.056 T:140059770318016 NOTICE: ADDON: metadata.common.allmusic.com v3.2.1 installed
962020-03-07 11:30:41.056 T:140059770318016 NOTICE: ADDON: metadata.common.fanart.tv v3.6.2 installed
972020-03-07 11:30:41.056 T:140059770318016 NOTICE: ADDON: metadata.common.imdb.com v3.1.4 installed
982020-03-07 11:30:41.056 T:140059770318016 NOTICE: ADDON: metadata.common.musicbrainz.org v2.2.1 installed
992020-03-07 11:30:41.056 T:140059770318016 NOTICE: ADDON: metadata.common.theaudiodb.com v2.0.3 installed
1002020-03-07 11:30:41.056 T:140059770318016 NOTICE: ADDON: metadata.common.themoviedb.org v3.1.10 installed
1012020-03-07 11:30:41.056 T:140059770318016 NOTICE: ADDON: metadata.local v1.0.0 installed
1022020-03-07 11:30:41.056 T:140059770318016 NOTICE: ADDON: metadata.themoviedb.org v5.1.10 installed
1032020-03-07 11:30:41.056 T:140059770318016 NOTICE: ADDON: metadata.tvshows.themoviedb.org v3.4.2 installed
1042020-03-07 11:30:41.056 T:140059770318016 NOTICE: ADDON: peripheral.joystick v1.4.9 installed
1052020-03-07 11:30:41.056 T:140059770318016 NOTICE: ADDON: plugin.video.mediathek v0.9.3 installed
1062020-03-07 11:30:41.056 T:140059770318016 NOTICE: ADDON: plugin.video.netflix v1.0.0 installed
1072020-03-07 11:30:41.056 T:140059770318016 NOTICE: ADDON: plugin.video.youtube v6.6.0 installed
1082020-03-07 11:30:41.056 T:140059770318016 NOTICE: ADDON: pvr.iptvsimple v3.9.8 installed
1092020-03-07 11:30:41.056 T:140059770318016 NOTICE: ADDON: repository.castagnait v1.0.0 installed
1102020-03-07 11:30:41.056 T:140059770318016 NOTICE: ADDON: repository.xbmc.org v3.1.6 installed
1112020-03-07 11:30:41.056 T:140059770318016 NOTICE: ADDON: resource.images.weathericons.default v1.1.8 installed
1122020-03-07 11:30:41.056 T:140059770318016 NOTICE: ADDON: resource.language.de_de v9.0.21 installed
1132020-03-07 11:30:41.056 T:140059770318016 NOTICE: ADDON: resource.language.en_gb v2.0.1 installed
1142020-03-07 11:30:41.056 T:140059770318016 NOTICE: ADDON: resource.uisounds.kodi v1.0.0 installed
1152020-03-07 11:30:41.056 T:140059770318016 NOTICE: ADDON: screensaver.xbmc.builtin.black v1.0.33 installed
1162020-03-07 11:30:41.056 T:140059770318016 NOTICE: ADDON: screensaver.xbmc.builtin.dim v1.0.59 installed
1172020-03-07 11:30:41.056 T:140059770318016 NOTICE: ADDON: script.module.addon.signals v0.0.5 installed
1182020-03-07 11:30:41.056 T:140059770318016 NOTICE: ADDON: script.module.beautifulsoup4 v4.6.2 installed
1192020-03-07 11:30:41.056 T:140059770318016 NOTICE: ADDON: script.module.certifi v2019.9.11 installed
1202020-03-07 11:30:41.056 T:140059770318016 NOTICE: ADDON: script.module.chardet v3.0.4 installed
1212020-03-07 11:30:41.056 T:140059770318016 NOTICE: ADDON: script.module.future v0.17.1 installed
1222020-03-07 11:30:41.056 T:140059770318016 NOTICE: ADDON: script.module.idna v2.8 installed
1232020-03-07 11:30:41.056 T:140059770318016 NOTICE: ADDON: script.module.inputstreamhelper v0.4.4 installed
1242020-03-07 11:30:41.056 T:140059770318016 NOTICE: ADDON: script.module.pil v1.1.7 installed
1252020-03-07 11:30:41.056 T:140059770318016 NOTICE: ADDON: script.module.pycryptodome v3.4.3 installed
1262020-03-07 11:30:41.056 T:140059770318016 NOTICE: ADDON: script.module.requests v2.22.0 installed
1272020-03-07 11:30:41.056 T:140059770318016 NOTICE: ADDON: script.module.six v1.13.0 installed
1282020-03-07 11:30:41.056 T:140059770318016 NOTICE: ADDON: script.module.urllib3 v1.25.6 installed
1292020-03-07 11:30:41.056 T:140059770318016 NOTICE: ADDON: service.xbmc.versioncheck v0.5.1 installed
1302020-03-07 11:30:41.056 T:140059770318016 NOTICE: ADDON: skin.confluence v4.6.9 installed
1312020-03-07 11:30:41.056 T:140059770318016 NOTICE: ADDON: skin.estouchy v2.0.28 installed
1322020-03-07 11:30:41.056 T:140059770318016 NOTICE: ADDON: skin.estuary v2.0.27 installed
1332020-03-07 11:30:41.056 T:140059770318016 NOTICE: ADDON: webinterface.default v18.x-2.4.6 installed
1342020-03-07 11:30:41.056 T:140059770318016 NOTICE: ADDON: xbmc.addon v18.6.0 installed
1352020-03-07 11:30:41.056 T:140059770318016 NOTICE: ADDON: xbmc.core v0.1.0 installed
1362020-03-07 11:30:41.056 T:140059770318016 NOTICE: ADDON: xbmc.gui v5.14.0 installed
1372020-03-07 11:30:41.056 T:140059770318016 NOTICE: ADDON: xbmc.json v10.3.0 installed
1382020-03-07 11:30:41.056 T:140059770318016 NOTICE: ADDON: xbmc.metadata v2.1.0 installed
1392020-03-07 11:30:41.056 T:140059770318016 NOTICE: ADDON: xbmc.python v2.26.0 installed
1402020-03-07 11:30:41.056 T:140059770318016 NOTICE: ADDON: xbmc.webinterface v1.0.0 installed
1412020-03-07 11:30:41.059 T:140059770318016 DEBUG: CFavourites::Load - no system favourites found, skipping
1422020-03-07 11:30:41.060 T:140059770318016 DEBUG: DBus method call to org.freedesktop.ConsoleKit.Manager.CanStop at /org/freedesktop/ConsoleKit/Manager of org.freedesktop.ConsoleKit failed: org.freedesktop.DBus.Error.ServiceUnknown - The name org.freedesktop.ConsoleKit was not provided by any .service files
1432020-03-07 11:30:41.060 T:140059770318016 INFO: Selected Logind/UPower as PowerSyscall
1442020-03-07 11:30:41.070 T:140059770318016 DEBUG: LogindUPowerSyscall - inhibit lock taken, fd 11
1452020-03-07 11:30:41.071 T:140059688826624 DEBUG: Thread ActiveAE start, auto delete: false
1462020-03-07 11:30:41.071 T:140059680433920 DEBUG: Thread AESink start, auto delete: false
1472020-03-07 11:30:41.072 T:140059688826624 DEBUG: PulseAudio: Context authorizing
1482020-03-07 11:30:41.072 T:140059688826624 DEBUG: PulseAudio: Context setting name
1492020-03-07 11:30:41.072 T:140059688826624 DEBUG: PulseAudio: Context ready
1502020-03-07 11:30:41.072 T:140059688826624 WARNING: Pulseaudio module module-allow-passthrough not loaded - opening PT devices might fail
1512020-03-07 11:30:41.072 T:140059672041216 DEBUG: PulseAudio: Found Simultaneous output to Internes Audio Digital Stereo (HDMI 2) with devicestring combined
1522020-03-07 11:30:41.072 T:140059672041216 DEBUG: PulseAudio: Found Internes Audio Digital Stereo (HDMI 2) with devicestring alsa_output.pci-0000_00_1f.3.hdmi-stereo-extra1
1532020-03-07 11:30:41.072 T:140059688826624 NOTICE: Found 1 Lists of Devices
1542020-03-07 11:30:41.072 T:140059688826624 NOTICE: Enumerated PULSE devices:
1552020-03-07 11:30:41.072 T:140059688826624 NOTICE: Device 1
1562020-03-07 11:30:41.072 T:140059688826624 NOTICE: m_deviceName : Default
1572020-03-07 11:30:41.072 T:140059688826624 NOTICE: m_displayName : Default
1582020-03-07 11:30:41.072 T:140059688826624 NOTICE: m_displayNameExtra: Default Output Device (PULSEAUDIO)
1592020-03-07 11:30:41.072 T:140059688826624 NOTICE: m_deviceType : AE_DEVTYPE_PCM
1602020-03-07 11:30:41.072 T:140059688826624 NOTICE: m_channels : FL, FR
1612020-03-07 11:30:41.072 T:140059688826624 NOTICE: m_sampleRates : 5512,8000,11025,16000,22050,32000,44100,48000,64000,88200,96000,176400,192000,384000
1622020-03-07 11:30:41.072 T:140059688826624 NOTICE: m_dataFormats : AE_FMT_U8,AE_FMT_S16NE,AE_FMT_S24NE3,AE_FMT_S24NE4,AE_FMT_S32NE,AE_FMT_FLOAT
1632020-03-07 11:30:41.072 T:140059688826624 NOTICE: m_streamTypes : No passthrough capabilities
1642020-03-07 11:30:41.072 T:140059688826624 NOTICE: Device 2
1652020-03-07 11:30:41.072 T:140059688826624 NOTICE: m_deviceName : combined
1662020-03-07 11:30:41.072 T:140059688826624 NOTICE: m_displayName : Simultaneous output to Internes Audio Digital Stereo (HDMI 2)
1672020-03-07 11:30:41.072 T:140059688826624 NOTICE: m_displayNameExtra: Simultaneous output to Internes Audio Digital Stereo (HDMI 2) (PULSEAUDIO)
1682020-03-07 11:30:41.072 T:140059688826624 NOTICE: m_deviceType : AE_DEVTYPE_PCM
1692020-03-07 11:30:41.072 T:140059688826624 NOTICE: m_channels : FL, FR
1702020-03-07 11:30:41.072 T:140059688826624 NOTICE: m_sampleRates : 5512,8000,11025,16000,22050,32000,44100,48000,64000,88200,96000,176400,192000,384000
1712020-03-07 11:30:41.072 T:140059688826624 NOTICE: m_dataFormats : AE_FMT_U8,AE_FMT_S16NE,AE_FMT_S24NE3,AE_FMT_S24NE4,AE_FMT_S32NE,AE_FMT_FLOAT
1722020-03-07 11:30:41.072 T:140059688826624 NOTICE: m_streamTypes : No passthrough capabilities
1732020-03-07 11:30:41.072 T:140059688826624 NOTICE: Device 3
1742020-03-07 11:30:41.072 T:140059688826624 NOTICE: m_deviceName : alsa_output.pci-0000_00_1f.3.hdmi-stereo-extra1
1752020-03-07 11:30:41.072 T:140059688826624 NOTICE: m_displayName : Internes Audio Digital Stereo (HDMI 2)
1762020-03-07 11:30:41.072 T:140059688826624 NOTICE: m_displayNameExtra: HDMI / DisplayPort 2 (PULSEAUDIO)
1772020-03-07 11:30:41.072 T:140059688826624 NOTICE: m_deviceType : AE_DEVTYPE_IEC958
1782020-03-07 11:30:41.072 T:140059688826624 NOTICE: m_channels : FL, FR
1792020-03-07 11:30:41.072 T:140059688826624 NOTICE: m_sampleRates : 5512,8000,11025,16000,22050,32000,44100,48000,64000,88200,96000,176400,192000,384000
1802020-03-07 11:30:41.072 T:140059688826624 NOTICE: m_dataFormats : AE_FMT_U8,AE_FMT_S16NE,AE_FMT_S24NE3,AE_FMT_S24NE4,AE_FMT_S32NE,AE_FMT_FLOAT,AE_FMT_RAW
1812020-03-07 11:30:41.072 T:140059688826624 NOTICE: m_streamTypes : STREAM_TYPE_AC3,STREAM_TYPE_EAC3,STREAM_TYPE_DTSHD_CORE,STREAM_TYPE_DTS_1024,STREAM_TYPE_DTS_512,STREAM_TYPE_DTS_2048
1822020-03-07 11:30:41.073 T:140059680433920 INFO: CActiveAESink::OpenSink - initialize sink
1832020-03-07 11:30:41.073 T:140059680433920 DEBUG: CActiveAESink::OpenSink - trying to open device PULSE:alsa_output.pci-0000_00_1f.3.hdmi-stereo-extra1
1842020-03-07 11:30:41.073 T:140059680433920 DEBUG: PulseAudio: Context authorizing
1852020-03-07 11:30:41.073 T:140059680433920 DEBUG: PulseAudio: Context setting name
1862020-03-07 11:30:41.073 T:140059680433920 DEBUG: PulseAudio: Context ready
1872020-03-07 11:30:41.074 T:140059680433920 DEBUG: PulseAudio: Stream ready
1882020-03-07 11:30:41.074 T:140059680433920 NOTICE: PulseAudio: Opened device alsa_output.pci-0000_00_1f.3.hdmi-stereo-extra1 in pcm mode with Buffersize 150 ms
1892020-03-07 11:30:41.074 T:140059680433920 DEBUG: CActiveAESink::OpenSink - PULSE Initialized:
1902020-03-07 11:30:41.074 T:140059680433920 DEBUG: Output Device : Internes Audio Digital Stereo (HDMI 2)
1912020-03-07 11:30:41.074 T:140059680433920 DEBUG: Sample Rate : 44100
1922020-03-07 11:30:41.074 T:140059680433920 DEBUG: Sample Format : AE_FMT_FLOAT
1932020-03-07 11:30:41.074 T:140059680433920 DEBUG: Channel Count : 2
1942020-03-07 11:30:41.074 T:140059680433920 DEBUG: Channel Layout: FL, FR
1952020-03-07 11:30:41.074 T:140059680433920 DEBUG: Frames : 2205
1962020-03-07 11:30:41.074 T:140059680433920 DEBUG: Frame Size : 8
1972020-03-07 11:30:41.074 T:140059672041216 DEBUG: Sink changed
1982020-03-07 11:30:41.075 T:140059770318016 DEBUG: Previous line repeats 1 times.
1992020-03-07 11:30:41.075 T:140059770318016 INFO: CKeyboardLayoutManager: loading keyboard layouts from special://xbmc/system/keyboardlayouts...
2002020-03-07 11:30:41.075 T:140059770318016 DEBUG: CKeyboardLayoutManager: keyboard layout "Portuguese (Portugal) QWERTY" successfully loaded
2012020-03-07 11:30:41.075 T:140059770318016 DEBUG: CKeyboardLayoutManager: keyboard layout "Italian QWERTY" successfully loaded
2022020-03-07 11:30:41.075 T:140059770318016 DEBUG: CKeyboardLayoutManager: keyboard layout "Slovenian QWERTZ" successfully loaded
2032020-03-07 11:30:41.075 T:140059770318016 DEBUG: CKeyboardLayoutManager: keyboard layout "Swedish QWERTY" successfully loaded
2042020-03-07 11:30:41.075 T:140059770318016 DEBUG: CKeyboardLayoutManager: keyboard layout "Greek QWERTY" successfully loaded
2052020-03-07 11:30:41.075 T:140059770318016 DEBUG: CKeyboardLayoutManager: keyboard layout "German QWERTZ" successfully loaded
2062020-03-07 11:30:41.075 T:140059770318016 DEBUG: CKeyboardLayoutManager: keyboard layout "German ABC" successfully loaded
2072020-03-07 11:30:41.075 T:140059770318016 DEBUG: CKeyboardLayoutManager: keyboard layout "Chinese BasePY" successfully loaded
2082020-03-07 11:30:41.075 T:140059770318016 DEBUG: CKeyboardLayoutManager: keyboard layout "Chinese BaiduPY" successfully loaded
2092020-03-07 11:30:41.075 T:140059770318016 DEBUG: CKeyboardLayoutManager: keyboard layout "Croatian QWERTY" successfully loaded
2102020-03-07 11:30:41.075 T:140059770318016 DEBUG: CKeyboardLayoutManager: keyboard layout "Arabic QWERTY" successfully loaded
2112020-03-07 11:30:41.076 T:140059770318016 DEBUG: CKeyboardLayoutManager: keyboard layout "Hungarian QWERTZ" successfully loaded
2122020-03-07 11:30:41.076 T:140059770318016 DEBUG: CKeyboardLayoutManager: keyboard layout "English QWERTY" successfully loaded
2132020-03-07 11:30:41.076 T:140059770318016 DEBUG: CKeyboardLayoutManager: keyboard layout "English AZERTY" successfully loaded
2142020-03-07 11:30:41.076 T:140059770318016 DEBUG: CKeyboardLayoutManager: keyboard layout "English ABC" successfully loaded
2152020-03-07 11:30:41.076 T:140059770318016 DEBUG: CKeyboardLayoutManager: keyboard layout "Russian ЙЦУКЕН" successfully loaded
2162020-03-07 11:30:41.076 T:140059770318016 DEBUG: CKeyboardLayoutManager: keyboard layout "Russian АБВ" successfully loaded
2172020-03-07 11:30:41.076 T:140059770318016 DEBUG: CKeyboardLayoutManager: keyboard layout "Korean ㄱㄴㄷ" successfully loaded
2182020-03-07 11:30:41.076 T:140059770318016 DEBUG: CKeyboardLayoutManager: keyboard layout "Hebrew QWERTY" successfully loaded
2192020-03-07 11:30:41.076 T:140059770318016 DEBUG: CKeyboardLayoutManager: keyboard layout "Hebrew ABC" successfully loaded
2202020-03-07 11:30:41.076 T:140059770318016 DEBUG: CKeyboardLayoutManager: keyboard layout "Romanian QWERTY" successfully loaded
2212020-03-07 11:30:41.076 T:140059770318016 DEBUG: CKeyboardLayoutManager: keyboard layout "Danish QWERTY" successfully loaded
2222020-03-07 11:30:41.076 T:140059770318016 DEBUG: CKeyboardLayoutManager: keyboard layout "Lithuanian AZERTY" successfully loaded
2232020-03-07 11:30:41.076 T:140059770318016 DEBUG: CKeyboardLayoutManager: keyboard layout "Lithuanian QWERTY" successfully loaded
2242020-03-07 11:30:41.076 T:140059770318016 DEBUG: CKeyboardLayoutManager: keyboard layout "Spanish QWERTY" successfully loaded
2252020-03-07 11:30:41.076 T:140059770318016 DEBUG: CKeyboardLayoutManager: keyboard layout "Slovak QWERTZ" successfully loaded
2262020-03-07 11:30:41.076 T:140059770318016 DEBUG: CKeyboardLayoutManager: keyboard layout "Slovak QWERTY" successfully loaded
2272020-03-07 11:30:41.077 T:140059770318016 DEBUG: CKeyboardLayoutManager: keyboard layout "Slovak ABC" successfully loaded
2282020-03-07 11:30:41.077 T:140059770318016 DEBUG: CKeyboardLayoutManager: keyboard layout "Ukrainian ЙЦУКЕН" successfully loaded
2292020-03-07 11:30:41.077 T:140059770318016 DEBUG: CKeyboardLayoutManager: keyboard layout "Ukrainian АБВ" successfully loaded
2302020-03-07 11:30:41.077 T:140059770318016 DEBUG: CKeyboardLayoutManager: keyboard layout "French AZERTY" successfully loaded
2312020-03-07 11:30:41.077 T:140059770318016 DEBUG: CKeyboardLayoutManager: keyboard layout "Czech QWERTZ" successfully loaded
2322020-03-07 11:30:41.077 T:140059770318016 DEBUG: CKeyboardLayoutManager: keyboard layout "Bulgarian ЯВЕРТЪ" successfully loaded
2332020-03-07 11:30:41.077 T:140059770318016 DEBUG: CKeyboardLayoutManager: keyboard layout "Bulgarian АБВ" successfully loaded
2342020-03-07 11:30:41.077 T:140059770318016 DEBUG: CKeyboardLayoutManager: keyboard layout "Thai Kedmanee" successfully loaded
2352020-03-07 11:30:41.077 T:140059770318016 DEBUG: CKeyboardLayoutManager: keyboard layout "Icelandic QWERTY" successfully loaded
2362020-03-07 11:30:41.077 T:140059770318016 DEBUG: CKeyboardLayoutManager: keyboard layout "Turkish QWERTY" successfully loaded
2372020-03-07 11:30:41.077 T:140059770318016 DEBUG: CKeyboardLayoutManager: keyboard layout "Polish QWERTY" successfully loaded
2382020-03-07 11:30:41.077 T:140059770318016 DEBUG: CKeyboardLayoutManager: keyboard layout "Silesian QWERTY" successfully loaded
2392020-03-07 11:30:41.077 T:140059770318016 DEBUG: CKeyboardLayoutManager: keyboard layout "Norwegian QWERTY" successfully loaded
2402020-03-07 11:30:41.079 T:140059770318016 DEBUG: Selected UDisks2 as storage provider
2412020-03-07 11:30:41.079 T:140059770318016 DEBUG: UDisks2: Daemon version 2.8.1
2422020-03-07 11:30:41.079 T:140059770318016 DEBUG: UDisks2: Querying available devices
2432020-03-07 11:30:41.554 T:140059770318016 INFO: Available videomodes (xrandr):
2442020-03-07 11:30:41.554 T:140059770318016 INFO: Output 'HDMI-2' has 61 modes
2452020-03-07 11:30:41.554 T:140059770318016 INFO: ID:0x46 Name:3840x2160 Refresh:30.000000 Width:3840 Height:2160
2462020-03-07 11:30:41.554 T:140059770318016 INFO: Pixel Ratio: 1.000000
2472020-03-07 11:30:41.554 T:140059770318016 INFO: ID:0x4d Name:3840x2160 Refresh:30.000000 Width:3840 Height:2160
2482020-03-07 11:30:41.554 T:140059770318016 INFO: Pixel Ratio: 1.000000
2492020-03-07 11:30:41.554 T:140059770318016 INFO: ID:0x4e Name:3840x2160 Refresh:25.000000 Width:3840 Height:2160
2502020-03-07 11:30:41.554 T:140059770318016 INFO: Pixel Ratio: 1.000000
2512020-03-07 11:30:41.554 T:140059770318016 INFO: ID:0x4f Name:3840x2160 Refresh:25.000000 Width:3840 Height:2160
2522020-03-07 11:30:41.554 T:140059770318016 INFO: Pixel Ratio: 1.000000
2532020-03-07 11:30:41.554 T:140059770318016 INFO: ID:0x50 Name:3840x2160 Refresh:24.000000 Width:3840 Height:2160
2542020-03-07 11:30:41.554 T:140059770318016 INFO: Pixel Ratio: 1.000000
2552020-03-07 11:30:41.554 T:140059770318016 INFO: ID:0x51 Name:3840x2160 Refresh:24.000000 Width:3840 Height:2160
2562020-03-07 11:30:41.554 T:140059770318016 INFO: Pixel Ratio: 1.000000
2572020-03-07 11:30:41.554 T:140059770318016 INFO: ID:0x52 Name:3840x2160 Refresh:29.969999 Width:3840 Height:2160
2582020-03-07 11:30:41.554 T:140059770318016 INFO: Pixel Ratio: 1.000000
2592020-03-07 11:30:41.554 T:140059770318016 INFO: ID:0x53 Name:3840x2160 Refresh:23.976000 Width:3840 Height:2160
2602020-03-07 11:30:41.554 T:140059770318016 INFO: Pixel Ratio: 1.000000
2612020-03-07 11:30:41.554 T:140059770318016 INFO: ID:0x47 Name:4096x2160 Refresh:30.000000 Width:4096 Height:2160
2622020-03-07 11:30:41.554 T:140059770318016 INFO: Pixel Ratio: 0.937500
2632020-03-07 11:30:41.554 T:140059770318016 INFO: ID:0x48 Name:4096x2160 Refresh:25.000000 Width:4096 Height:2160
2642020-03-07 11:30:41.554 T:140059770318016 INFO: Pixel Ratio: 0.937500
2652020-03-07 11:30:41.554 T:140059770318016 INFO: ID:0x49 Name:4096x2160 Refresh:24.000000 Width:4096 Height:2160
2662020-03-07 11:30:41.554 T:140059770318016 INFO: Pixel Ratio: 0.937500
2672020-03-07 11:30:41.554 T:140059770318016 INFO: ID:0x4a Name:4096x2160 Refresh:24.000000 Width:4096 Height:2160
2682020-03-07 11:30:41.554 T:140059770318016 INFO: Pixel Ratio: 0.937500
2692020-03-07 11:30:41.554 T:140059770318016 INFO: ID:0x4b Name:4096x2160 Refresh:29.969999 Width:4096 Height:2160
2702020-03-07 11:30:41.554 T:140059770318016 INFO: Pixel Ratio: 0.937500
2712020-03-07 11:30:41.554 T:140059770318016 INFO: ID:0x4c Name:4096x2160 Refresh:23.976000 Width:4096 Height:2160
2722020-03-07 11:30:41.554 T:140059770318016 INFO: Pixel Ratio: 0.937500
2732020-03-07 11:30:41.554 T:140059770318016 INFO: ID:0x54 Name:1920x1080 Refresh:120.000000 Width:1920 Height:1080
2742020-03-07 11:30:41.554 T:140059770318016 INFO: Pixel Ratio: 1.000000
2752020-03-07 11:30:41.554 T:140059770318016 INFO: ID:0x55 Name:1920x1080 Refresh:100.000000 Width:1920 Height:1080
2762020-03-07 11:30:41.554 T:140059770318016 INFO: Pixel Ratio: 1.000000
2772020-03-07 11:30:41.554 T:140059770318016 INFO: ID:0x56 Name:1920x1080 Refresh:119.879997 Width:1920 Height:1080
2782020-03-07 11:30:41.554 T:140059770318016 INFO: Pixel Ratio: 1.000000
2792020-03-07 11:30:41.554 T:140059770318016 INFO: ID:0x57 Name:1920x1080 Refresh:60.000000 Width:1920 Height:1080
2802020-03-07 11:30:41.554 T:140059770318016 INFO: Pixel Ratio: 1.000000
2812020-03-07 11:30:41.554 T:140059770318016 INFO: ID:0x58 Name:1920x1080 Refresh:60.000000 Width:1920 Height:1080
2822020-03-07 11:30:41.554 T:140059770318016 INFO: Pixel Ratio: 1.000000
2832020-03-07 11:30:41.554 T:140059770318016 INFO: ID:0x59 Name:1920x1080 Refresh:50.000000 Width:1920 Height:1080
2842020-03-07 11:30:41.554 T:140059770318016 INFO: Pixel Ratio: 1.000000
2852020-03-07 11:30:41.554 T:140059770318016 INFO: ID:0x5a Name:1920x1080 Refresh:59.940201 Width:1920 Height:1080
2862020-03-07 11:30:41.554 T:140059770318016 INFO: Pixel Ratio: 1.000000
2872020-03-07 11:30:41.554 T:140059770318016 INFO: ID:0x5e Name:1920x1080 Refresh:30.000000 Width:1920 Height:1080
2882020-03-07 11:30:41.554 T:140059770318016 INFO: Pixel Ratio: 1.000000
2892020-03-07 11:30:41.554 T:140059770318016 INFO: ID:0x5f Name:1920x1080 Refresh:25.000000 Width:1920 Height:1080
2902020-03-07 11:30:41.554 T:140059770318016 INFO: Pixel Ratio: 1.000000
2912020-03-07 11:30:41.554 T:140059770318016 INFO: ID:0x60 Name:1920x1080 Refresh:24.000000 Width:1920 Height:1080
2922020-03-07 11:30:41.554 T:140059770318016 INFO: Pixel Ratio: 1.000000
2932020-03-07 11:30:41.554 T:140059770318016 INFO: ID:0x62 Name:1920x1080 Refresh:29.970100 Width:1920 Height:1080
2942020-03-07 11:30:41.554 T:140059770318016 INFO: Pixel Ratio: 1.000000
2952020-03-07 11:30:41.554 T:140059770318016 INFO: ID:0x63 Name:1920x1080 Refresh:23.976080 Width:1920 Height:1080
2962020-03-07 11:30:41.554 T:140059770318016 INFO: Pixel Ratio: 1.000000
2972020-03-07 11:30:41.554 T:140059770318016 INFO: ID:0x5b Name:1920x1080i Refresh:30.000000 Width:1920 Height:1080
2982020-03-07 11:30:41.554 T:140059770318016 INFO: Pixel Ratio: 1.000000
2992020-03-07 11:30:41.554 T:140059770318016 INFO: ID:0x5c Name:1920x1080i Refresh:25.000000 Width:1920 Height:1080
3002020-03-07 11:30:41.554 T:140059770318016 INFO: Pixel Ratio: 1.000000
3012020-03-07 11:30:41.554 T:140059770318016 INFO: ID:0x5d Name:1920x1080i Refresh:25.000000 Width:1920 Height:1080
3022020-03-07 11:30:41.554 T:140059770318016 INFO: Pixel Ratio: 1.000000
3032020-03-07 11:30:41.554 T:140059770318016 INFO: ID:0x61 Name:1920x1080i Refresh:29.970100 Width:1920 Height:1080
3042020-03-07 11:30:41.554 T:140059770318016 INFO: Pixel Ratio: 1.000000
3052020-03-07 11:30:41.554 T:140059770318016 INFO: ID:0x64 Name:1680x1050 Refresh:59.883251 Width:1680 Height:1050
3062020-03-07 11:30:41.554 T:140059770318016 INFO: Pixel Ratio: 1.111111
3072020-03-07 11:30:41.554 T:140059770318016 INFO: ID:0x65 Name:1600x900 Refresh:60.000000 Width:1600 Height:900
3082020-03-07 11:30:41.554 T:140059770318016 INFO: Pixel Ratio: 1.000000
3092020-03-07 11:30:41.554 T:140059770318016 INFO: ID:0x66 Name:1280x1024 Refresh:75.024673 Width:1280 Height:1024
3102020-03-07 11:30:41.554 T:140059770318016 INFO: Pixel Ratio: 1.422222
3112020-03-07 11:30:41.554 T:140059770318016 INFO: ID:0x67 Name:1280x1024 Refresh:60.019741 Width:1280 Height:1024
3122020-03-07 11:30:41.554 T:140059770318016 INFO: Pixel Ratio: 1.422222
3132020-03-07 11:30:41.554 T:140059770318016 INFO: ID:0x68 Name:1440x900 Refresh:59.901459 Width:1440 Height:900
3142020-03-07 11:30:41.554 T:140059770318016 INFO: Pixel Ratio: 1.111111
3152020-03-07 11:30:41.554 T:140059770318016 INFO: ID:0x69 Name:1366x768 Refresh:59.789539 Width:1366 Height:768
3162020-03-07 11:30:41.554 T:140059770318016 INFO: Pixel Ratio: 0.999512
3172020-03-07 11:30:41.554 T:140059770318016 INFO: ID:0x6a Name:1280x800 Refresh:59.909550 Width:1280 Height:800
3182020-03-07 11:30:41.554 T:140059770318016 INFO: Pixel Ratio: 1.111111
3192020-03-07 11:30:41.554 T:140059770318016 INFO: ID:0x6b Name:1152x864 Refresh:75.000000 Width:1152 Height:864
3202020-03-07 11:30:41.554 T:140059770318016 INFO: Pixel Ratio: 1.333333
3212020-03-07 11:30:41.554 T:140059770318016 INFO: ID:0x6c Name:1280x720 Refresh:60.000000 Width:1280 Height:720
3222020-03-07 11:30:41.554 T:140059770318016 INFO: Pixel Ratio: 1.000000
3232020-03-07 11:30:41.554 T:140059770318016 INFO: ID:0x6d Name:1280x720 Refresh:60.000000 Width:1280 Height:720
3242020-03-07 11:30:41.554 T:140059770318016 INFO: Pixel Ratio: 1.000000
3252020-03-07 11:30:41.554 T:140059770318016 INFO: ID:0x6e Name:1280x720 Refresh:50.000000 Width:1280 Height:720
3262020-03-07 11:30:41.554 T:140059770318016 INFO: Pixel Ratio: 1.000000
3272020-03-07 11:30:41.554 T:140059770318016 INFO: ID:0x6f Name:1280x720 Refresh:59.940201 Width:1280 Height:720
3282020-03-07 11:30:41.554 T:140059770318016 INFO: Pixel Ratio: 1.000000
3292020-03-07 11:30:41.554 T:140059770318016 INFO: ID:0x70 Name:1024x768 Refresh:75.028580 Width:1024 Height:768
3302020-03-07 11:30:41.554 T:140059770318016 INFO: Pixel Ratio: 1.333333
3312020-03-07 11:30:41.554 T:140059770318016 INFO: ID:0x71 Name:1024x768 Refresh:70.069359 Width:1024 Height:768
3322020-03-07 11:30:41.554 T:140059770318016 INFO: Pixel Ratio: 1.333333
3332020-03-07 11:30:41.554 T:140059770318016 INFO: ID:0x72 Name:1024x768 Refresh:60.003841 Width:1024 Height:768
3342020-03-07 11:30:41.554 T:140059770318016 INFO: Pixel Ratio: 1.333333
3352020-03-07 11:30:41.554 T:140059770318016 INFO: ID:0x73 Name:832x624 Refresh:74.551270 Width:832 Height:624
3362020-03-07 11:30:41.554 T:140059770318016 INFO: Pixel Ratio: 1.333333
3372020-03-07 11:30:41.554 T:140059770318016 INFO: ID:0x74 Name:800x600 Refresh:72.187569 Width:800 Height:600
3382020-03-07 11:30:41.554 T:140059770318016 INFO: Pixel Ratio: 1.333333
3392020-03-07 11:30:41.554 T:140059770318016 INFO: ID:0x75 Name:800x600 Refresh:75.000000 Width:800 Height:600
3402020-03-07 11:30:41.554 T:140059770318016 INFO: Pixel Ratio: 1.333333
3412020-03-07 11:30:41.554 T:140059770318016 INFO: ID:0x76 Name:800x600 Refresh:60.316540 Width:800 Height:600
3422020-03-07 11:30:41.554 T:140059770318016 INFO: Pixel Ratio: 1.333333
3432020-03-07 11:30:41.554 T:140059770318016 INFO: ID:0x77 Name:720x576 Refresh:50.000000 Width:720 Height:576
3442020-03-07 11:30:41.554 T:140059770318016 INFO: Pixel Ratio: 1.422222
3452020-03-07 11:30:41.554 T:140059770318016 INFO: ID:0x78 Name:720x576i Refresh:25.000000 Width:720 Height:576
3462020-03-07 11:30:41.554 T:140059770318016 INFO: Pixel Ratio: 1.422222
3472020-03-07 11:30:41.554 T:140059770318016 INFO: ID:0x79 Name:720x480 Refresh:60.000000 Width:720 Height:480
3482020-03-07 11:30:41.554 T:140059770318016 INFO: Pixel Ratio: 1.185185
3492020-03-07 11:30:41.554 T:140059770318016 INFO: ID:0x7a Name:720x480 Refresh:59.940060 Width:720 Height:480
3502020-03-07 11:30:41.554 T:140059770318016 INFO: Pixel Ratio: 1.185185
3512020-03-07 11:30:41.554 T:140059770318016 INFO: ID:0x7b Name:720x480i Refresh:30.001110 Width:720 Height:480
3522020-03-07 11:30:41.554 T:140059770318016 INFO: Pixel Ratio: 1.185185
3532020-03-07 11:30:41.554 T:140059770318016 INFO: ID:0x7c Name:720x480i Refresh:29.970030 Width:720 Height:480
3542020-03-07 11:30:41.554 T:140059770318016 INFO: Pixel Ratio: 1.185185
3552020-03-07 11:30:41.554 T:140059770318016 INFO: ID:0x7d Name:640x480 Refresh:75.000000 Width:640 Height:480
3562020-03-07 11:30:41.554 T:140059770318016 INFO: Pixel Ratio: 1.333333
3572020-03-07 11:30:41.554 T:140059770318016 INFO: ID:0x7e Name:640x480 Refresh:72.808800 Width:640 Height:480
3582020-03-07 11:30:41.554 T:140059770318016 INFO: Pixel Ratio: 1.333333
3592020-03-07 11:30:41.554 T:140059770318016 INFO: ID:0x7f Name:640x480 Refresh:66.666672 Width:640 Height:480
3602020-03-07 11:30:41.554 T:140059770318016 INFO: Pixel Ratio: 1.333333
3612020-03-07 11:30:41.554 T:140059770318016 INFO: ID:0x80 Name:640x480 Refresh:60.000000 Width:640 Height:480
3622020-03-07 11:30:41.554 T:140059770318016 INFO: Pixel Ratio: 1.333333
3632020-03-07 11:30:41.554 T:140059770318016 INFO: ID:0x81 Name:640x480 Refresh:59.940479 Width:640 Height:480
3642020-03-07 11:30:41.554 T:140059770318016 INFO: Pixel Ratio: 1.333333
3652020-03-07 11:30:41.554 T:140059770318016 INFO: ID:0x82 Name:720x400 Refresh:70.081657 Width:720 Height:400
3662020-03-07 11:30:41.554 T:140059770318016 INFO: Pixel Ratio: 0.987654
3672020-03-07 11:30:41.554 T:140059770318016 NOTICE: Checking resolution 16
3682020-03-07 11:30:41.554 T:140059770318016 DEBUG: Window Manager Name: Xfwm4
3692020-03-07 11:30:41.618 T:140059770318016 INFO: RetroPlayer[PROCESS]: Registering process control for X11
3702020-03-07 11:30:41.618 T:140059770318016 INFO: RetroPlayer[RENDER]: Registering renderer factory for OpenGL
3712020-03-07 11:30:41.636 T:140059770318016 NOTICE: Using visual 0x21
3722020-03-07 11:30:41.646 T:140059770318016 DEBUG: Vaapi2 EGL interop test results: general yes, deepColor yes
3732020-03-07 11:30:41.646 T:140059770318016 DEBUG: libva info: VA-API version 1.4.0
3742020-03-07 11:30:41.647 T:140059770318016 DEBUG: libva info: va_getDriverName() returns 0
3752020-03-07 11:30:41.647 T:140059770318016 DEBUG: libva info: Trying to open /usr/lib/x86_64-linux-gnu/dri/i965_drv_video.so
3762020-03-07 11:30:41.647 T:140059770318016 DEBUG: libva info: Found init function __vaDriverInit_1_4
3772020-03-07 11:30:41.647 T:140059770318016 DEBUG: libva info: va_openDriver() returns 0
3782020-03-07 11:30:41.647 T:140059770318016 NOTICE: VAAPI::Close - closing decoder context
3792020-03-07 11:30:41.647 T:140059770318016 DEBUG: EGL_EXTENSIONS: EGL_ANDROID_blob_cache EGL_ANDROID_native_fence_sync EGL_CHROMIUM_sync_control EGL_EXT_buffer_age EGL_EXT_create_context_robustness EGL_EXT_image_dma_buf_import EGL_EXT_image_dma_buf_import_modifiers EGL_IMG_context_priority EGL_KHR_config_attribs EGL_KHR_create_context EGL_KHR_create_context_no_error EGL_KHR_fence_sync EGL_KHR_get_all_proc_addresses EGL_KHR_gl_colorspace EGL_KHR_gl_renderbuffer_image EGL_KHR_gl_texture_2D_image EGL_KHR_gl_texture_3D_image EGL_KHR_gl_texture_cubemap_image EGL_KHR_image EGL_KHR_image_base EGL_KHR_image_pixmap EGL_KHR_no_config_context EGL_KHR_reusable_sync EGL_KHR_surfaceless_context EGL_EXT_pixel_format_float EGL_KHR_wait_sync EGL_MESA_configless_context EGL_MESA_drm_image EGL_MESA_image_dma_buf_export EGL_NOK_texture_from_pixmap EGL_WL_bind_wayland_display
3802020-03-07 11:30:41.647 T:140059770318016 NOTICE: GL_VENDOR = Intel Open Source Technology Center
3812020-03-07 11:30:41.647 T:140059770318016 NOTICE: GL_RENDERER = Mesa DRI Intel(R) HD Graphics 630 (Kaby Lake GT2)
3822020-03-07 11:30:41.647 T:140059770318016 NOTICE: GL_VERSION = 4.5 (Core Profile) Mesa 18.3.6
3832020-03-07 11:30:41.647 T:140059770318016 NOTICE: GL_SHADING_LANGUAGE_VERSION = 4.50
3842020-03-07 11:30:41.647 T:140059770318016 NOTICE: GL_EXTENSIONS = GL_3DFX_texture_compression_FXT1 GL_AMD_conservative_depth GL_AMD_depth_clamp_separate GL_AMD_draw_buffers_blend GL_AMD_gpu_shader_int64 GL_AMD_multi_draw_indirect GL_AMD_query_buffer_object GL_AMD_seamless_cubemap_per_texture GL_AMD_shader_stencil_export GL_AMD_shader_trinary_minmax GL_AMD_vertex_shader_layer GL_AMD_vertex_shader_viewport_index GL_ANGLE_texture_compression_dxt3 GL_ANGLE_texture_compression_dxt5 GL_APPLE_object_purgeable GL_ARB_ES2_compatibility GL_ARB_ES3_1_compatibility GL_ARB_ES3_2_compatibility GL_ARB_ES3_compatibility GL_ARB_arrays_of_arrays GL_ARB_base_instance GL_ARB_blend_func_extended GL_ARB_buffer_storage GL_ARB_clear_buffer_object GL_ARB_clear_texture GL_ARB_clip_control GL_ARB_compressed_texture_pixel_storage GL_ARB_compute_shader GL_ARB_conditional_render_inverted GL_ARB_conservative_depth GL_ARB_copy_buffer GL_ARB_copy_image GL_ARB_cull_distance GL_ARB_debug_output GL_ARB_depth_buffer_float GL_ARB_depth_clamp GL_ARB_derivative_control GL_ARB_direct_state_access GL_ARB_draw_buffers GL_ARB_draw_buffers_blend GL_ARB_draw_elements_base_vertex GL_ARB_draw_indirect GL_ARB_draw_instanced GL_ARB_enhanced_layouts GL_ARB_explicit_attrib_location GL_ARB_explicit_uniform_location GL_ARB_fragment_coord_conventions GL_ARB_fragment_layer_viewport GL_ARB_fragment_shader GL_ARB_fragment_shader_interlock GL_ARB_framebuffer_no_attachments GL_ARB_framebuffer_object GL_ARB_framebuffer_sRGB GL_ARB_get_program_binary GL_ARB_get_texture_sub_image GL_ARB_gpu_shader5 GL_ARB_gpu_shader_fp64 GL_ARB_gpu_shader_int64 GL_ARB_half_float_pixel GL_ARB_half_float_vertex GL_ARB_indirect_parameters GL_ARB_instanced_arrays GL_ARB_internalformat_query GL_ARB_internalformat_query2 GL_ARB_invalidate_subdata GL_ARB_map_buffer_alignment GL_ARB_map_buffer_range GL_ARB_multi_bind GL_ARB_multi_draw_indirect GL_ARB_occlusion_query2 GL_ARB_pipeline_statistics_query GL_ARB_pixel_buffer_object GL_ARB_point_sprite GL_ARB_polygon_offset_clamp GL_ARB_post_depth_coverage GL_ARB_program_interface_query GL_ARB_provoking_vertex GL_ARB_query_buffer_object GL_ARB_robust_buffer_access_behavior GL_ARB_robustness GL_ARB_sample_shading GL_ARB_sampler_objects GL_ARB_seamless_cube_map GL_ARB_seamless_cubemap_per_texture GL_ARB_separate_shader_objects GL_ARB_shader_atomic_counter_ops GL_ARB_shader_atomic_counters GL_ARB_shader_ballot GL_ARB_shader_bit_encoding GL_ARB_shader_clock GL_ARB_shader_draw_parameters GL_ARB_shader_group_vote GL_ARB_shader_image_load_store GL_ARB_shader_image_size GL_ARB_shader_objects GL_ARB_shader_precision GL_ARB_shader_stencil_export GL_ARB_shader_storage_buffer_object GL_ARB_shader_subroutine GL_ARB_shader_texture_image_samples GL_ARB_shader_texture_lod GL_ARB_shader_viewport_layer_array GL_ARB_shading_language_420pack GL_ARB_shading_language_packing GL_ARB_stencil_texturing GL_ARB_sync GL_ARB_tessellation_shader GL_ARB_texture_barrier GL_ARB_texture_buffer_object GL_ARB_texture_buffer_object_rgb32 GL_ARB_texture_buffer_range GL_ARB_texture_compression_bptc GL_ARB_texture_compression_rgtc GL_ARB_texture_cube_map_array GL_ARB_texture_filter_anisotropic GL_ARB_texture_float GL_ARB_texture_gather GL_ARB_texture_mirror_clamp_to_edge GL_ARB_texture_multisample GL_ARB_texture_non_power_of_two GL_ARB_texture_query_levels GL_ARB_texture_query_lod GL_ARB_texture_rectangle GL_ARB_texture_rg GL_ARB_texture_rgb10_a2ui GL_ARB_texture_stencil8 GL_ARB_texture_storage GL_ARB_texture_storage_multisample GL_ARB_texture_swizzle GL_ARB_texture_view GL_ARB_timer_query GL_ARB_transform_feedback2 GL_ARB_transform_feedback3 GL_ARB_transform_feedback_instanced GL_ARB_transform_feedback_overflow_query GL_ARB_uniform_buffer_object GL_ARB_vertex_array_bgra GL_ARB_vertex_array_object GL_ARB_vertex_attrib_64bit GL_ARB_vertex_attrib_binding GL_ARB_vertex_buffer_object GL_ARB_vertex_shader GL_ARB_vertex_type_10f_11f_11f_rev GL_ARB_vertex_type_2_10_10_10_rev GL_ARB_viewport_array GL_ATI_blend_equation_separate GL_ATI_texture_float GL_EXT_abgr GL_EXT_blend_equation_separate GL_EXT_draw_buffers2 GL_EXT_draw_instanced GL_EXT_framebuffer_blit GL_EXT_framebuffer_multisample GL_EXT_framebuffer_multisample_blit_scaled GL_EXT_framebuffer_object GL_EXT_framebuffer_sRGB GL_EXT_packed_depth_stencil GL_EXT_packed_float GL_EXT_pixel_buffer_object GL_EXT_polygon_offset_clamp GL_EXT_provoking_vertex GL_EXT_shader_framebuffer_fetch GL_EXT_shader_framebuffer_fetch_non_coherent GL_EXT_shader_integer_mix GL_EXT_shader_samples_identical GL_EXT_texture_array GL_EXT_texture_compression_dxt1 GL_EXT_texture_compression_rgtc GL_EXT_texture_compression_s3tc GL_EXT_texture_filter_anisotropic GL_EXT_texture_integer GL_EXT_texture_sRGB GL_EXT_texture_sRGB_decode GL_EXT_texture_shared_exponent GL_EXT_texture_snorm GL_EXT_texture_swizzle GL_EXT_timer_query GL_EXT_transform_feedback GL_EXT_vertex_array_bgra GL_EXT_vertex_attrib_64bit GL_IBM_multimode_draw_arrays GL_INTEL_conservative_rasterization GL_INTEL_performance_query GL_INTEL_shader_atomic_float_minmax GL_KHR_blend_equation_advanced GL_KHR_blend_equation_advanced_coherent GL_KHR_context_flush_control GL_KHR_debug GL_KHR_no_error GL_KHR_robust_buffer_access_behavior GL_KHR_robustness GL_KHR_texture_compression_astc_ldr GL_KHR_texture_compression_astc_sliced_3d GL_MESA_pack_invert GL_MESA_shader_integer_functions GL_MESA_texture_signed_rgba GL_NV_conditional_render GL_NV_depth_clamp GL_NV_fragment_shader_interlock GL_NV_packed_depth_stencil GL_NV_texture_barrier GL_OES_EGL_image GL_S3_s3tc
3852020-03-07 11:30:41.650 T:140059770318016 INFO: GL: Maximum texture width: 16384
3862020-03-07 11:30:41.650 T:140059770318016 DEBUG: guilib: Fill viewport on change for solving rendering passes
3872020-03-07 11:30:41.713 T:140059770318016 INFO: GL: Enabling VSYNC
3882020-03-07 11:30:41.714 T:140059770318016 INFO: load keymapping
3892020-03-07 11:30:41.715 T:140059770318016 INFO: Loading special://xbmc/system/keymaps/appcommand.xml
3902020-03-07 11:30:41.715 T:140059770318016 INFO: Loading special://xbmc/system/keymaps/customcontroller.AppleRemote.xml
3912020-03-07 11:30:41.716 T:140059770318016 INFO: Loading special://xbmc/system/keymaps/customcontroller.Harmony.xml
3922020-03-07 11:30:41.716 T:140059770318016 INFO: Loading special://xbmc/system/keymaps/gamepad.xml
3932020-03-07 11:30:41.717 T:140059770318016 INFO: Loading special://xbmc/system/keymaps/joystick.xml
3942020-03-07 11:30:41.717 T:140059770318016 INFO: Loading special://xbmc/system/keymaps/keyboard.xml
3952020-03-07 11:30:41.718 T:140059770318016 INFO: Loading special://xbmc/system/keymaps/mouse.xml
3962020-03-07 11:30:41.718 T:140059770318016 INFO: Loading special://xbmc/system/keymaps/remote.xml
3972020-03-07 11:30:41.719 T:140059770318016 INFO: Loading special://xbmc/system/keymaps/touchscreen.xml
3982020-03-07 11:30:41.719 T:140059770318016 INFO: GUI format 1920x1080, Display HDMI-2: 1920x1080 @ 24.00Hz
3992020-03-07 11:30:41.719 T:140059770318016 INFO: CLangInfo: loading resource.language.de_de language information...
4002020-03-07 11:30:41.719 T:140059770318016 DEBUG: trying to set locale to de_DE.UTF-8
4012020-03-07 11:30:41.719 T:140059770318016 INFO: global locale set to de_DE.UTF-8
4022020-03-07 11:30:41.720 T:140059770318016 INFO: CLangInfo: loading resource.language.de_de language strings...
4032020-03-07 11:30:41.724 T:140059770318016 DEBUG: LocalizeStrings: loaded 4015 strings from file resource://resource.language.de_de/strings.po
4042020-03-07 11:30:41.728 T:140059770318016 DEBUG: LocalizeStrings: loaded 0 strings from file resource://resource.language.en_gb/strings.po
4052020-03-07 11:30:41.730 T:140059770318016 DEBUG: LocalizeStrings: loaded 1 strings from file /usr/share/kodi/addons/audioencoder.kodi.builtin.aac/resources/language/English/strings.po
4062020-03-07 11:30:41.730 T:140059770318016 DEBUG: LocalizeStrings: loaded 1 strings from file /usr/share/kodi/addons/audioencoder.kodi.builtin.wma/resources/language/English/strings.po
4072020-03-07 11:30:41.730 T:140059770318016 DEBUG: LocalizeStrings: loaded 18 strings from file /usr/share/kodi/addons/game.controller.default/resources/language/resource.language.en_gb/strings.po
4082020-03-07 11:30:41.730 T:140059770318016 DEBUG: LocalizeStrings: loaded 13 strings from file /usr/share/kodi/addons/game.controller.snes/resources/language/resource.language.en_gb/strings.po
4092020-03-07 11:30:41.730 T:140059770318016 DEBUG: LocalizeStrings: loaded 23 strings from file /usr/share/kodi/addons/inputstream.adaptive/resources/language/resource.language.de_de/strings.po
4102020-03-07 11:30:41.730 T:140059770318016 DEBUG: LocalizeStrings: loaded 1 strings from file /usr/share/kodi/addons/inputstream.adaptive/resources/language/resource.language.en_gb/strings.po
4112020-03-07 11:30:41.730 T:140059770318016 DEBUG: LocalizeStrings: loaded 11 strings from file /home/pi/.kodi/addons/metadata.album.universal/resources/language/resource.language.de_de/strings.po
4122020-03-07 11:30:41.730 T:140059770318016 DEBUG: LocalizeStrings: loaded 6 strings from file /home/pi/.kodi/addons/metadata.album.universal/resources/language/resource.language.en_gb/strings.po
4132020-03-07 11:30:41.731 T:140059770318016 DEBUG: LocalizeStrings: loaded 23 strings from file /home/pi/.kodi/addons/metadata.artists.universal/resources/language/resource.language.de_de/strings.po
4142020-03-07 11:30:41.731 T:140059770318016 DEBUG: LocalizeStrings: loaded 9 strings from file /home/pi/.kodi/addons/metadata.artists.universal/resources/language/resource.language.en_gb/strings.po
4152020-03-07 11:30:41.731 T:140059770318016 DEBUG: LocalizeStrings: loaded 7 strings from file /home/pi/.kodi/addons/metadata.themoviedb.org/resources/language/resource.language.de_de/strings.po
4162020-03-07 11:30:41.731 T:140059770318016 DEBUG: POParser: id:30003 was recently re-used in the English string file, which is not yet changed in the translated file. Using the English string instead
4172020-03-07 11:30:41.732 T:140059770318016 DEBUG: LocalizeStrings: loaded 2 strings from file /home/pi/.kodi/addons/metadata.themoviedb.org/resources/language/resource.language.en_gb/strings.po
4182020-03-07 11:30:41.732 T:140059770318016 DEBUG: LocalizeStrings: loaded 3 strings from file /home/pi/.kodi/addons/metadata.tvshows.themoviedb.org/resources/language/resource.language.de_de/strings.po
4192020-03-07 11:30:41.732 T:140059770318016 DEBUG: LocalizeStrings: loaded 7 strings from file /home/pi/.kodi/addons/metadata.tvshows.themoviedb.org/resources/language/resource.language.en_gb/strings.po
4202020-03-07 11:30:41.732 T:140059770318016 DEBUG: LocalizeStrings: loaded 9 strings from file /usr/share/kodi/addons/peripheral.joystick/resources/language/resource.language.en_gb/strings.po
4212020-03-07 11:30:41.732 T:140059770318016 DEBUG: LocalizeStrings: loaded 22 strings from file /usr/share/kodi/addons/pvr.iptvsimple/resources/language/resource.language.de_de/strings.po
4222020-03-07 11:30:41.732 T:140059770318016 DEBUG: LocalizeStrings: loaded 1 strings from file /usr/share/kodi/addons/pvr.iptvsimple/resources/language/resource.language.en_gb/strings.po
4232020-03-07 11:30:41.732 T:140059770318016 DEBUG: LocalizeStrings: loaded 1 strings from file /usr/share/kodi/addons/screensaver.xbmc.builtin.dim/resources/language/resource.language.de_de/strings.po
4242020-03-07 11:30:41.733 T:140059770318016 DEBUG: LocalizeStrings: loaded 0 strings from file /usr/share/kodi/addons/screensaver.xbmc.builtin.dim/resources/language/resource.language.en_gb/strings.po
4252020-03-07 11:30:41.733 T:140059770318016 DEBUG: LocalizeStrings: loaded 21 strings from file /home/pi/.kodi/addons/service.xbmc.versioncheck/resources/language/German/strings.po
4262020-03-07 11:30:41.733 T:140059770318016 DEBUG: LocalizeStrings: loaded 3 strings from file /home/pi/.kodi/addons/service.xbmc.versioncheck/resources/language/English/strings.po
4272020-03-07 11:30:41.734 T:140059770318016 DEBUG: LocalizeStrings: loaded 78 strings from file /home/pi/.kodi/addons/script.module.inputstreamhelper/resources/language/resource.language.de_de/strings.po
4282020-03-07 11:30:41.734 T:140059770318016 DEBUG: LocalizeStrings: loaded 0 strings from file /home/pi/.kodi/addons/script.module.inputstreamhelper/resources/language/resource.language.en_gb/strings.po
4292020-03-07 11:30:41.735 T:140059770318016 DEBUG: LocalizeStrings: loaded 237 strings from file /home/pi/.kodi/addons/plugin.video.netflix/resources/language/resource.language.de_de/strings.po
4302020-03-07 11:30:41.735 T:140059770318016 DEBUG: LocalizeStrings: loaded 1 strings from file /home/pi/.kodi/addons/plugin.video.netflix/resources/language/resource.language.en_gb/strings.po
4312020-03-07 11:30:41.736 T:140059770318016 DEBUG: LocalizeStrings: loaded 292 strings from file /home/pi/.kodi/addons/plugin.video.youtube/resources/language/resource.language.de_de/strings.po
4322020-03-07 11:30:41.736 T:140059770318016 DEBUG: POParser: id:30100 was recently re-used in the English string file, which is not yet changed in the translated file. Using the English string instead
4332020-03-07 11:30:41.736 T:140059770318016 DEBUG: LocalizeStrings: loaded 1 strings from file /home/pi/.kodi/addons/plugin.video.youtube/resources/language/resource.language.en_gb/strings.po
4342020-03-07 11:30:41.736 T:140059770318016 DEBUG: LocalizeStrings: loaded 15 strings from file /home/pi/.kodi/addons/plugin.video.mediathek/resources/language/resource.language.de_de/strings.po
4352020-03-07 11:30:41.736 T:140059770318016 DEBUG: LocalizeStrings: loaded 0 strings from file /home/pi/.kodi/addons/plugin.video.mediathek/resources/language/resource.language.en_gb/strings.po
4362020-03-07 11:30:41.737 T:140059637131008 DEBUG: Thread JobWorker start, auto delete: true
4372020-03-07 11:30:41.737 T:140059637131008 DEBUG: Initialize, updating databases...
4382020-03-07 11:30:41.737 T:140059637131008 NOTICE: Running database version Addons27
4392020-03-07 11:30:41.737 T:140059637131008 NOTICE: Running database version ViewModes6
4402020-03-07 11:30:41.737 T:140059637131008 NOTICE: Running database version Textures13
4412020-03-07 11:30:41.738 T:140059637131008 NOTICE: Running database version MyMusic72
4422020-03-07 11:30:41.739 T:140059637131008 NOTICE: Running database version MyVideos116
4432020-03-07 11:30:41.740 T:140059637131008 NOTICE: Running database version TV32
4442020-03-07 11:30:41.740 T:140059637131008 NOTICE: Running database version Epg12
4452020-03-07 11:30:41.740 T:140059637131008 DEBUG: Initialize, updating databases... DONE
4462020-03-07 11:30:41.745 T:140059770318016 NOTICE: start dvd mediatype detection
4472020-03-07 11:30:41.745 T:140059756898048 DEBUG: Thread DetectDVDMedia start, auto delete: false
4482020-03-07 11:30:41.745 T:140059756898048 DEBUG: Compiled with libcdio Version 0.20100
4492020-03-07 11:30:41.746 T:140059770318016 DEBUG: DPMS: supported power-saving modes: SUSPEND OFF STANDBY
4502020-03-07 11:30:41.747 T:140059756898048 DEBUG: Thread DetectDVDMedia 140059756898048 terminating
4512020-03-07 11:30:41.754 T:140059770318016 INFO: Unloading old skin ...
4522020-03-07 11:30:41.755 T:140059770318016 NOTICE: load skin from: /home/pi/.kodi/addons/skin.confluence (version: 4.6.9)
4532020-03-07 11:30:41.755 T:140059770318016 INFO: load fonts for skin...
4542020-03-07 11:30:41.755 T:140059770318016 INFO: Loading skin includes from /home/pi/.kodi/addons/skin.confluence/720p/Includes.xml
4552020-03-07 11:30:41.771 T:140059770318016 INFO: Loading fonts from /home/pi/.kodi/addons/skin.confluence/720p/Font.xml
4562020-03-07 11:30:41.775 T:140059770318016 DEBUG: LocalizeStrings: loaded 149 strings from file /home/pi/.kodi/addons/skin.confluence/language/resource.language.de_de/strings.po
4572020-03-07 11:30:41.775 T:140059770318016 DEBUG: LocalizeStrings: loaded 9 strings from file /home/pi/.kodi/addons/skin.confluence/language/resource.language.en_gb/strings.po
4582020-03-07 11:30:41.775 T:140059770318016 INFO: load new skin...
4592020-03-07 11:30:41.775 T:140059770318016 INFO: Loading custom window XMLs from skin path /home/pi/.kodi/addons/skin.confluence/720p
4602020-03-07 11:30:41.776 T:140059770318016 DEBUG: Load Skin XML: 0.60ms
4612020-03-07 11:30:41.776 T:140059770318016 INFO: initialize new skin...
4622020-03-07 11:30:41.776 T:140059770318016 DEBUG: guilib: Fill viewport on change for solving rendering passes
4632020-03-07 11:30:41.776 T:140059770318016 INFO: Loading skin file: DialogNotification.xml, load type: LOAD_ON_GUI_INIT
4642020-03-07 11:30:41.776 T:140059770318016 INFO: Loading skin file: DialogSeekBar.xml, load type: LOAD_ON_GUI_INIT
4652020-03-07 11:30:41.778 T:140059770318016 DEBUG: OpenBundle - Opened bundle /home/pi/.kodi/addons/skin.confluence/media/Textures.xbt
4662020-03-07 11:30:41.778 T:140059770318016 INFO: Loading skin file: DialogExtendedProgressBar.xml, load type: LOAD_ON_GUI_INIT
4672020-03-07 11:30:41.779 T:140059770318016 INFO: Loading skin file: DialogBusy.xml, load type: LOAD_ON_GUI_INIT
4682020-03-07 11:30:41.779 T:140059770318016 INFO: Loading skin file: custom_PVRChannelNumberInput.xml, load type: LOAD_ON_GUI_INIT
4692020-03-07 11:30:41.779 T:140059770318016 INFO: Loading skin file: DialogVolumeBar.xml, load type: LOAD_ON_GUI_INIT
4702020-03-07 11:30:41.779 T:140059770318016 INFO: Loading skin file: Pointer.xml, load type: LOAD_ON_GUI_INIT
4712020-03-07 11:30:41.780 T:140059770318016 INFO: Loading skin file: DialogBusy.xml, load type: LOAD_ON_GUI_INIT
4722020-03-07 11:30:41.780 T:140059770318016 INFO: Loading resource://resource.uisounds.kodi/sounds.xml
4732020-03-07 11:30:41.790 T:140059770318016 INFO: skin loaded...
4742020-03-07 11:30:41.790 T:140059770318016 DEBUG: Activating window ID: 12997
4752020-03-07 11:30:41.790 T:140059770318016 DEBUG: ------ Window Init () ------
4762020-03-07 11:30:41.790 T:140059770318016 DEBUG: Activating window ID: 12999
4772020-03-07 11:30:41.790 T:140059770318016 DEBUG: ------ Window Init (Startup.xml) ------
4782020-03-07 11:30:41.790 T:140059770318016 INFO: Loading skin file: Startup.xml, load type: LOAD_EVERY_TIME
4792020-03-07 11:30:41.790 T:140059770318016 DEBUG: Activating window ID: 10000
4802020-03-07 11:30:41.790 T:140059770318016 DEBUG: ------ Window Deinit (Startup.xml) ------
4812020-03-07 11:30:41.790 T:140059770318016 DEBUG: ------ Window Init (Home.xml) ------
4822020-03-07 11:30:41.790 T:140059770318016 INFO: Loading skin file: Home.xml, load type: KEEP_IN_MEMORY
4832020-03-07 11:30:41.804 T:140059770318016 DEBUG: CDirectoryProvider[library://video/movies/]: refreshing..
4842020-03-07 11:30:41.804 T:140059770318016 DEBUG: CDirectoryProvider[library://video/tvshows/]: refreshing..
4852020-03-07 11:30:41.804 T:140059770318016 DEBUG: CDirectoryProvider[library://music/]: refreshing..
4862020-03-07 11:30:41.804 T:140059637131008 DEBUG: [Warning] CGUITextureManager::GetTexturePath: could not find texture 'DefaultStudios.png'
4872020-03-07 11:30:41.804 T:140059637131008 DEBUG: [Warning] CGUITextureManager::GetTexturePath: could not find texture 'DefaultMovieTitle.png'
4882020-03-07 11:30:41.810 T:140059637131008 DEBUG: [Warning] CGUITextureManager::GetTexturePath: could not find texture 'DefaultSets.png'
4892020-03-07 11:30:41.810 T:140059637131008 DEBUG: [Warning] CGUITextureManager::GetTexturePath: could not find texture 'DefaultGenre.png'
4902020-03-07 11:30:41.810 T:140059637131008 DEBUG: [Warning] CGUITextureManager::GetTexturePath: could not find texture 'DefaultYear.png'
4912020-03-07 11:30:41.810 T:140059604936448 DEBUG: Thread JobWorker start, auto delete: true
4922020-03-07 11:30:41.810 T:140059637131008 DEBUG: [Warning] CGUITextureManager::GetTexturePath: could not find texture 'DefaultTags.png'
4932020-03-07 11:30:41.810 T:140059637131008 DEBUG: [Warning] CGUITextureManager::GetTexturePath: could not find texture 'DefaultCountry.png'
4942020-03-07 11:30:41.810 T:140059637131008 DEBUG: [Warning] CGUITextureManager::GetTexturePath: could not find texture 'DefaultDirector.png'
4952020-03-07 11:30:41.811 T:140059604936448 DEBUG: [Warning] CGUITextureManager::GetTexturePath: could not find texture 'DefaultStudios.png'
4962020-03-07 11:30:41.811 T:140059604936448 DEBUG: [Warning] CGUITextureManager::GetTexturePath: could not find texture 'DefaultTVShowTitle.png'
4972020-03-07 11:30:41.811 T:140059604936448 DEBUG: [Warning] CGUITextureManager::GetTexturePath: could not find texture 'DefaultGenre.png'
4982020-03-07 11:30:41.811 T:140059604936448 DEBUG: [Warning] CGUITextureManager::GetTexturePath: could not find texture 'DefaultYear.png'
4992020-03-07 11:30:41.811 T:140059604936448 DEBUG: [Warning] CGUITextureManager::GetTexturePath: could not find texture 'DefaultTags.png'
5002020-03-07 11:30:41.826 T:140059604936448 DEBUG: CRecentlyAddedJob::UpdateMusic() - Running RecentlyAdded home screen update
5012020-03-07 11:30:41.829 T:140059770318016 DEBUG: JSONRPC: JSON schema type definition references an unknown type Setting.Details.Setting
5022020-03-07 11:30:41.829 T:140059770318016 WARNING: JSONRPC: Could not parse type "Setting.Details.SettingList"
5032020-03-07 11:30:41.829 T:140059770318016 INFO: JSONRPC: Adding type "Setting.Details.SettingList" to list of incomplete definitions (waiting for "Setting.Details.Setting")
5042020-03-07 11:30:41.829 T:140059770318016 INFO: JSONRPC: Resolving incomplete types/methods referencing Setting.Details.Setting
5052020-03-07 11:30:41.830 T:140059604936448 DEBUG: GetRecentlyAddedAlbumSongs() query: SELECT songview.*, songartistview.* FROM (SELECT idAlbum FROM album ORDER BY idAlbum DESC LIMIT 10) AS recentalbums JOIN songview ON songview.idAlbum = recentalbums.idAlbum JOIN songartistview ON songview.idSong = songartistview.idSong ORDER BY songview.idAlbum DESC, songview.idSong, songartistview.idRole, songartistview.iOrder
5062020-03-07 11:30:41.834 T:140059770318016 INFO: JSONRPC v10.3.0: Successfully initialized
5072020-03-07 11:30:41.834 T:140059770318016 DEBUG: LoadMappings - loaded node "Motorola Nyxboard Hybrid"
5082020-03-07 11:30:41.834 T:140059770318016 DEBUG: LoadMappings - loaded node "CEC Adapter"
5092020-03-07 11:30:41.834 T:140059770318016 DEBUG: LoadMappings - loaded node "Pulse-Eight CEC Adapter"
5102020-03-07 11:30:41.834 T:140059770318016 DEBUG: LoadMappings - loaded node "iMON HID device"
5112020-03-07 11:30:41.834 T:140059770318016 DEBUG: LoadMappings - loaded node "WETEK Play remote"
5122020-03-07 11:30:41.834 T:140059770318016 DEBUG: LoadMappings - loaded node ""
5132020-03-07 11:30:41.834 T:140059770318016 DEBUG: CPeripheralBusUSB - initialised udev monitor
5142020-03-07 11:30:41.834 T:140059770318016 DEBUG: Add-on bus: Registering add-on peripheral.joystick
5152020-03-07 11:30:41.834 T:140059770318016 DEBUG: PERIPHERAL - CreateAddon - creating peripheral add-on instance 'Joystick Support'
5162020-03-07 11:30:41.834 T:140059770318016 DEBUG: ADDON: Dll Initializing - Joystick Support
5172020-03-07 11:30:41.834 T:140059770318016 ERROR: ADDON: Could not locate peripheral.joystick.so.1.4.9
5182020-03-07 11:30:41.834 T:140059770318016 ERROR: IAddonInstanceHandler::CreateInstance: peripheral.joystick returned bad status "Permanent failure" during instance creation
5192020-03-07 11:30:41.835 T:140059588151040 DEBUG: Thread PeripBusUSBUdev start, auto delete: false
5202020-03-07 11:30:41.835 T:140059579758336 DEBUG: Thread PeripBusCEC start, auto delete: false
5212020-03-07 11:30:41.837 T:140059604936448 DEBUG: GetRecentlyAddedAlbums query: SELECT albumview.*, albumartistview.* FROM (SELECT idAlbum FROM album WHERE strAlbum != '' ORDER BY idAlbum DESC LIMIT 10) AS recentalbums JOIN albumview ON albumview.idAlbum = recentalbums.idAlbum JOIN albumartistview ON albumview.idAlbum = albumartistview.idAlbum ORDER BY albumview.idAlbum desc, albumartistview.iOrder
5222020-03-07 11:30:41.839 T:140059604936448 DEBUG: CRecentlyAddedJob::UpdateVideos() - Running RecentlyAdded home screen update
5232020-03-07 11:30:41.843 T:140059571365632 DEBUG: Thread PeripBusAddon start, auto delete: false
5242020-03-07 11:30:41.843 T:140059770318016 DEBUG: Initialise - initialised peripheral on 'keyboard' with 1 features and 0 sub devices
5252020-03-07 11:30:41.843 T:140059770318016 NOTICE: Register - new keyboard device registered on application->keyboard: Tastatur (0000:0000)
5262020-03-07 11:30:41.844 T:140059770318016 DEBUG: Initialise - initialised peripheral on 'mouse' with 1 features and 0 sub devices
5272020-03-07 11:30:41.844 T:140059770318016 NOTICE: Register - new mouse device registered on application->mouse: Maus (0000:0000)
5282020-03-07 11:30:41.844 T:140058682193664 DEBUG: Thread PeripEventScanner start, auto delete: false
5292020-03-07 11:30:41.844 T:140059770318016 DEBUG: ContextMenuManager: addon menus reloaded.
5302020-03-07 11:30:41.844 T:140059770318016 NOTICE: Loading player core factory settings from special://xbmc/system/playercorefactory.xml.
5312020-03-07 11:30:41.845 T:140059770318016 DEBUG: CPlayerCoreConfig::<ctor>: created player VideoPlayer
5322020-03-07 11:30:41.845 T:140059770318016 DEBUG: CPlayerCoreConfig::<ctor>: created player PAPlayer
5332020-03-07 11:30:41.845 T:140059770318016 DEBUG: CPlayerCoreConfig::<ctor>: created player RetroPlayer
5342020-03-07 11:30:41.845 T:140059770318016 DEBUG: CPlayerSelectionRule::Initialize: creating rule: system rules
5352020-03-07 11:30:41.845 T:140059770318016 DEBUG: CPlayerSelectionRule::Initialize: creating rule: mms/udp
5362020-03-07 11:30:41.845 T:140059770318016 DEBUG: CPlayerSelectionRule::Initialize: creating rule: lastfm/shout
5372020-03-07 11:30:41.845 T:140059770318016 DEBUG: CPlayerSelectionRule::Initialize: creating rule: rtmp
5382020-03-07 11:30:41.845 T:140059770318016 DEBUG: CPlayerSelectionRule::Initialize: creating rule: rtsp
5392020-03-07 11:30:41.845 T:140059770318016 DEBUG: CPlayerSelectionRule::Initialize: creating rule: streams
5402020-03-07 11:30:41.845 T:140059770318016 DEBUG: CPlayerSelectionRule::Initialize: creating rule: aacp/sdp
5412020-03-07 11:30:41.845 T:140059770318016 DEBUG: CPlayerSelectionRule::Initialize: creating rule: mp2
5422020-03-07 11:30:41.845 T:140059770318016 DEBUG: CPlayerSelectionRule::Initialize: creating rule: dvd
5432020-03-07 11:30:41.845 T:140059770318016 DEBUG: CPlayerSelectionRule::Initialize: creating rule: dvdimage
5442020-03-07 11:30:41.845 T:140059770318016 DEBUG: CPlayerSelectionRule::Initialize: creating rule: sdp/asf
5452020-03-07 11:30:41.845 T:140059770318016 DEBUG: CPlayerSelectionRule::Initialize: creating rule: nsv
5462020-03-07 11:30:41.845 T:140059770318016 DEBUG: CPlayerSelectionRule::Initialize: creating rule: radio
5472020-03-07 11:30:41.845 T:140059770318016 NOTICE: Loaded playercorefactory configuration
5482020-03-07 11:30:41.845 T:140059770318016 NOTICE: Loading player core factory settings from special://masterprofile/playercorefactory.xml.
5492020-03-07 11:30:41.845 T:140059770318016 NOTICE: special://masterprofile/playercorefactory.xml does not exist. Skipping.
5502020-03-07 11:30:41.845 T:140059770318016 INFO: removing tempfiles
5512020-03-07 11:30:41.848 T:140059770318016 DEBUG: CRepositoryUpdater: previous update at 06.03.2020 19:47:43, next at 07.03.2020 19:47:43
5522020-03-07 11:30:41.849 T:140059770318016 DEBUG: CServiceAddonManager: starting service.xbmc.versioncheck
5532020-03-07 11:30:41.849 T:140059770318016 DEBUG: CServiceAddonManager: starting plugin.video.netflix
5542020-03-07 11:30:41.849 T:140059770318016 DEBUG: CServiceAddonManager: starting plugin.video.youtube
5552020-03-07 11:30:41.849 T:140059770318016 NOTICE: initialize done
5562020-03-07 11:30:41.849 T:140059770318016 NOTICE: Running the application...
5572020-03-07 11:30:41.849 T:140059770318016 DEBUG: no profile autoexec.py (/home/pi/.kodi/userdata/autoexec.py) found, skipping
5582020-03-07 11:30:41.849 T:140059770318016 DEBUG: NetworkMessage - Starting network services
5592020-03-07 11:30:41.849 T:140059770318016 NOTICE: CWebServer[8888]: Started
5602020-03-07 11:30:41.851 T:140059770318016 DEBUG: CZeroconfAvahi::clientCallback: client is up and running
5612020-03-07 11:30:41.852 T:140059770318016 ERROR: JSONRPC Server: Failed to connect to sdpd
5622020-03-07 11:30:41.852 T:140059770318016 INFO: JSONRPC Server: Successfully initialized
5632020-03-07 11:30:41.852 T:140058673800960 DEBUG: Thread Timer start, auto delete: false
5642020-03-07 11:30:41.852 T:140058657015552 DEBUG: Thread LanguageInvoker start, auto delete: false
5652020-03-07 11:30:41.852 T:140058657015552 DEBUG: Previous line repeats 1 times.
5662020-03-07 11:30:41.852 T:140058657015552 INFO: initializing python engine.
5672020-03-07 11:30:41.852 T:140058464081664 INFO: Previous line repeats 1 times.
5682020-03-07 11:30:41.852 T:140058464081664 DEBUG: Thread TCPServer start, auto delete: false
5692020-03-07 11:30:41.852 T:140058665408256 DEBUG: Thread LanguageInvoker start, auto delete: false
5702020-03-07 11:30:41.852 T:140058472474368 DEBUG: Thread EventServer start, auto delete: false
5712020-03-07 11:30:41.852 T:140058472474368 NOTICE: ES: Starting UDP Event server on port 9777
5722020-03-07 11:30:41.852 T:140058665408256 INFO: initializing python engine.
5732020-03-07 11:30:41.852 T:140058472474368 NOTICE: UDP: Listening on port 9777 (ipv6 : true)
5742020-03-07 11:30:41.929 T:140058648622848 DEBUG: CPythonInvoker(2, /home/pi/.kodi/addons/plugin.video.youtube/resources/lib/startup.py): start processing
5752020-03-07 11:30:41.929 T:140058657015552 DEBUG: CPythonInvoker(1, /home/pi/.kodi/addons/plugin.video.netflix/service.py): start processing
5762020-03-07 11:30:41.929 T:140058665408256 DEBUG: CPythonInvoker(0, /home/pi/.kodi/addons/service.xbmc.versioncheck/resources/lib/runner.py): start processing
5772020-03-07 11:30:42.054 T:140058648622848 DEBUG: -->Python Interpreter Initialized<--
5782020-03-07 11:30:42.054 T:140058648622848 DEBUG: CPythonInvoker(2, /home/pi/.kodi/addons/plugin.video.youtube/resources/lib/startup.py): the source file to load is "/home/pi/.kodi/addons/plugin.video.youtube/resources/lib/startup.py"
5792020-03-07 11:30:42.054 T:140058657015552 DEBUG: -->Python Interpreter Initialized<--
5802020-03-07 11:30:42.054 T:140058657015552 DEBUG: CPythonInvoker(1, /home/pi/.kodi/addons/plugin.video.netflix/service.py): the source file to load is "/home/pi/.kodi/addons/plugin.video.netflix/service.py"
5812020-03-07 11:30:42.054 T:140058665408256 DEBUG: -->Python Interpreter Initialized<--
5822020-03-07 11:30:42.054 T:140058665408256 DEBUG: CPythonInvoker(0, /home/pi/.kodi/addons/service.xbmc.versioncheck/resources/lib/runner.py): the source file to load is "/home/pi/.kodi/addons/service.xbmc.versioncheck/resources/lib/runner.py"
5832020-03-07 11:30:42.054 T:140058648622848 DEBUG: CPythonInvoker(2, /home/pi/.kodi/addons/plugin.video.youtube/resources/lib/startup.py): setting the Python path to /home/pi/.kodi/addons/plugin.video.youtube/resources/lib:/home/pi/.kodi/addons/script.module.certifi/lib:/home/pi/.kodi/addons/script.module.chardet/lib:/home/pi/.kodi/addons/script.module.idna/lib:/home/pi/.kodi/addons/script.module.inputstreamhelper/lib:/home/pi/.kodi/addons/script.module.requests/lib:/home/pi/.kodi/addons/script.module.six/lib:/home/pi/.kodi/addons/script.module.urllib3/lib:/usr/lib/python2.7:/usr/lib/python2.7/plat-x86_64-linux-gnu:/usr/lib/python2.7/lib-tk:/usr/lib/python2.7/lib-old:/usr/lib/python2.7/lib-dynload:/home/pi/.local/lib/python2.7/site-packages:/usr/local/lib/python2.7/dist-packages:/usr/lib/python2.7/dist-packages:/usr/lib/python2.7/dist-packages/gtk-2.0:/usr/lib/python2.7/dist-packages/wx-3.0-gtk3
5842020-03-07 11:30:42.054 T:140058648622848 DEBUG: CPythonInvoker(2, /home/pi/.kodi/addons/plugin.video.youtube/resources/lib/startup.py): entering source directory /home/pi/.kodi/addons/plugin.video.youtube/resources/lib
5852020-03-07 11:30:42.054 T:140058665408256 DEBUG: CPythonInvoker(0, /home/pi/.kodi/addons/service.xbmc.versioncheck/resources/lib/runner.py): setting the Python path to /home/pi/.kodi/addons/service.xbmc.versioncheck/resources/lib:/usr/lib/python2.7:/usr/lib/python2.7/plat-x86_64-linux-gnu:/usr/lib/python2.7/lib-tk:/usr/lib/python2.7/lib-old:/usr/lib/python2.7/lib-dynload:/home/pi/.local/lib/python2.7/site-packages:/usr/local/lib/python2.7/dist-packages:/usr/lib/python2.7/dist-packages:/usr/lib/python2.7/dist-packages/gtk-2.0:/usr/lib/python2.7/dist-packages/wx-3.0-gtk3
5862020-03-07 11:30:42.054 T:140058665408256 DEBUG: CPythonInvoker(0, /home/pi/.kodi/addons/service.xbmc.versioncheck/resources/lib/runner.py): entering source directory /home/pi/.kodi/addons/service.xbmc.versioncheck/resources/lib
5872020-03-07 11:30:42.054 T:140058665408256 DEBUG: CPythonInvoker(0, /home/pi/.kodi/addons/service.xbmc.versioncheck/resources/lib/runner.py): instantiating addon using automatically obtained id of "service.xbmc.versioncheck" dependent on version 2.14.0 of the xbmc.python api
5882020-03-07 11:30:42.054 T:140058657015552 DEBUG: CPythonInvoker(1, /home/pi/.kodi/addons/plugin.video.netflix/service.py): setting the Python path to /home/pi/.kodi/addons/plugin.video.netflix:/home/pi/.kodi/addons/script.module.addon.signals/lib:/home/pi/.kodi/addons/script.module.certifi/lib:/home/pi/.kodi/addons/script.module.chardet/lib:/home/pi/.kodi/addons/script.module.future/libs:/home/pi/.kodi/addons/script.module.idna/lib:/home/pi/.kodi/addons/script.module.inputstreamhelper/lib:/home/pi/.kodi/addons/script.module.requests/lib:/home/pi/.kodi/addons/script.module.urllib3/lib:/usr/share/kodi/addons/script.module.pycryptodome/lib:/usr/lib/python2.7:/usr/lib/python2.7/plat-x86_64-linux-gnu:/usr/lib/python2.7/lib-tk:/usr/lib/python2.7/lib-old:/usr/lib/python2.7/lib-dynload:/home/pi/.local/lib/python2.7/site-packages:/usr/local/lib/python2.7/dist-packages:/usr/lib/python2.7/dist-packages:/usr/lib/python2.7/dist-packages/gtk-2.0:/usr/lib/python2.7/dist-packages/wx-3.0-gtk3
5892020-03-07 11:30:42.054 T:140058657015552 DEBUG: CPythonInvoker(1, /home/pi/.kodi/addons/plugin.video.netflix/service.py): entering source directory /home/pi/.kodi/addons/plugin.video.netflix
5902020-03-07 11:30:42.083 T:140058648622848 DEBUG: CPythonInvoker(2, /home/pi/.kodi/addons/plugin.video.youtube/resources/lib/startup.py): instantiating addon using automatically obtained id of "plugin.video.youtube" dependent on version 2.20.0 of the xbmc.python api
5912020-03-07 11:30:42.083 T:140058657015552 DEBUG: CPythonInvoker(1, /home/pi/.kodi/addons/plugin.video.netflix/service.py): instantiating addon using automatically obtained id of "plugin.video.netflix" dependent on version 2.26.0 of the xbmc.python api
5922020-03-07 11:30:42.133 T:140059770318016 DEBUG: ------ Window Init () ------
5932020-03-07 11:30:42.134 T:140059604936448 DEBUG: CRecentlyAddedJob::UpdateTotal() - Running RecentlyAdded home screen update
5942020-03-07 11:30:42.135 T:140059604936448 DEBUG: GetArtistsByWhere query: SELECT COUNT(DISTINCT artistview.idArtist) FROM artistview WHERE (EXISTS (SELECT 1 FROM song_artist WHERE song_artist.idArtist = artistview.idArtist AND song_artist.idRole = 1) OR EXISTS (SELECT 1 FROM album_artist WHERE album_artist.idArtist = artistview.idArtist)) AND (artistview.strArtist != '')
5952020-03-07 11:30:42.349 T:140058648622848 DEBUG: CAddonSettings[plugin.video.youtube]: loading setting definitions
5962020-03-07 11:30:42.349 T:140058648622848 DEBUG: CAddonSettings[plugin.video.youtube]: trying to load setting definitions from old format...
5972020-03-07 11:30:42.350 T:140058648622848 DEBUG: CAddonSettings[plugin.video.youtube]: loading setting values
5982020-03-07 11:30:42.350 T:140058648622848 DEBUG: CSettingsManager: requested setting (youtube.api.config.address) was not found.
5992020-03-07 11:30:42.350 T:140058648622848 DEBUG: CAddonSettings[plugin.video.youtube]: failed to find definition for setting youtube.api.config.address. Creating a setting on-the-fly...
6002020-03-07 11:30:42.350 T:140058648622848 DEBUG: [plugin.video.youtube] send_notification: |check_settings| -> |{"httpd_address": "0.0.0.0", "use_httpd": true, "whitelist": "", "httpd_port": 50153}|
6012020-03-07 11:30:42.350 T:140058648622848 DEBUG: [plugin.video.youtube] JSONStore Load |/home/pi/.kodi/userdata/addon_data/plugin.video.youtube/api_keys.json|
6022020-03-07 11:30:42.350 T:140058648622848 DEBUG: [plugin.video.youtube] JSONStore Load |/home/pi/.kodi/userdata/addon_data/plugin.video.youtube/access_manager.json|
6032020-03-07 11:30:42.350 T:140058648622848 DEBUG: CSettingsManager: requested setting (kodion.access_token) was not found.
6042020-03-07 11:30:42.350 T:140058648622848 DEBUG: CSettingsManager: requested setting (kodion.refresh_token) was not found.
6052020-03-07 11:30:42.350 T:140058648622848 DEBUG: CSettingsManager: requested setting (kodion.access_token.expires) was not found.
6062020-03-07 11:30:42.350 T:140058648622848 DEBUG: CSettingsManager: requested setting (youtube.api.last.hash) was not found.
6072020-03-07 11:30:42.351 T:140058648622848 DEBUG: [plugin.video.youtube] User: |0| Using API key set: |own|
6082020-03-07 11:30:42.370 T:140059770318016 DEBUG: LogindUPowerSyscall - Received unknown signal NameAcquired
6092020-03-07 11:30:42.387 T:140058648622848 DEBUG: [plugin.video.youtube] YouTube service initialization...
6102020-03-07 11:30:42.388 T:140058648622848 DEBUG: CAddonSettings[plugin.video.youtube]: loading setting definitions
6112020-03-07 11:30:42.388 T:140058648622848 DEBUG: CAddonSettings[plugin.video.youtube]: trying to load setting definitions from old format...
6122020-03-07 11:30:42.388 T:140058648622848 DEBUG: CAddonSettings[plugin.video.youtube]: loading setting values
6132020-03-07 11:30:42.388 T:140058648622848 DEBUG: CSettingsManager: requested setting (youtube.api.config.address) was not found.
6142020-03-07 11:30:42.388 T:140058648622848 DEBUG: CAddonSettings[plugin.video.youtube]: failed to find definition for setting youtube.api.config.address. Creating a setting on-the-fly...
6152020-03-07 11:30:42.388 T:140058648622848 DEBUG: [plugin.video.youtube] HTTPServer: Starting |0.0.0.0:50153|
6162020-03-07 11:30:42.446 T:140058648622848 DEBUG: [plugin.video.youtube] HTTPServer: Serving on |0.0.0.0:50153|
6172020-03-07 11:30:42.447 T:140058648622848 DEBUG: CAddonSettings[plugin.video.youtube]: loading setting definitions
6182020-03-07 11:30:42.447 T:140058648622848 DEBUG: CAddonSettings[plugin.video.youtube]: trying to load setting definitions from old format...
6192020-03-07 11:30:42.447 T:140058648622848 DEBUG: CAddonSettings[plugin.video.youtube]: loading setting values
6202020-03-07 11:30:42.447 T:140058648622848 DEBUG: CSettingsManager: requested setting (youtube.api.config.address) was not found.
6212020-03-07 11:30:42.447 T:140058648622848 DEBUG: CAddonSettings[plugin.video.youtube]: failed to find definition for setting youtube.api.config.address. Creating a setting on-the-fly...
6222020-03-07 11:30:42.505 T:140058648622848 DEBUG: CAddonSettings[plugin.video.youtube]: loading setting definitions
6232020-03-07 11:30:42.505 T:140058648622848 DEBUG: CAddonSettings[plugin.video.youtube]: trying to load setting definitions from old format...
6242020-03-07 11:30:42.506 T:140058648622848 DEBUG: CAddonSettings[plugin.video.youtube]: loading setting values
6252020-03-07 11:30:42.506 T:140058648622848 DEBUG: CSettingsManager: requested setting (youtube.api.config.address) was not found.
6262020-03-07 11:30:42.506 T:140058648622848 DEBUG: CAddonSettings[plugin.video.youtube]: failed to find definition for setting youtube.api.config.address. Creating a setting on-the-fly...
6272020-03-07 11:30:42.971 T:140058657015552 DEBUG: CAddonSettings[plugin.video.netflix]: loading setting definitions
6282020-03-07 11:30:42.971 T:140058657015552 DEBUG: CAddonSettings[plugin.video.netflix]: trying to load setting definitions from old format...
6292020-03-07 11:30:42.971 T:140058657015552 DEBUG: CAddonSettings[plugin.video.netflix]: loading setting values
6302020-03-07 11:30:42.972 T:140058657015552 DEBUG: CSettingsManager: requested setting (run_init_configuration) was not found.
6312020-03-07 11:30:42.972 T:140058657015552 DEBUG: CAddonSettings[plugin.video.netflix]: failed to find definition for setting run_init_configuration. Creating a setting on-the-fly...
6322020-03-07 11:30:42.973 T:140058665408256 DEBUG: CAddonSettings[service.xbmc.versioncheck]: loading setting definitions
6332020-03-07 11:30:42.973 T:140058665408256 DEBUG: CAddonSettings[service.xbmc.versioncheck]: trying to load setting definitions from old format...
6342020-03-07 11:30:42.973 T:140058665408256 DEBUG: Version Check: Version 0.5.1 started
6352020-03-07 11:30:42.979 T:140058455688960 DEBUG: CAddonSettings[plugin.video.youtube]: loading setting definitions
6362020-03-07 11:30:42.979 T:140058455688960 DEBUG: CAddonSettings[plugin.video.youtube]: trying to load setting definitions from old format...
6372020-03-07 11:30:42.979 T:140058455688960 DEBUG: CAddonSettings[plugin.video.youtube]: loading setting values
6382020-03-07 11:30:42.979 T:140058455688960 DEBUG: CSettingsManager: requested setting (youtube.api.config.address) was not found.
6392020-03-07 11:30:42.979 T:140058455688960 DEBUG: CAddonSettings[plugin.video.youtube]: failed to find definition for setting youtube.api.config.address. Creating a setting on-the-fly...
6402020-03-07 11:30:42.980 T:140058455688960 DEBUG: CAddonSettings[plugin.video.youtube]: loading setting definitions
6412020-03-07 11:30:42.980 T:140058455688960 DEBUG: CAddonSettings[plugin.video.youtube]: trying to load setting definitions from old format...
6422020-03-07 11:30:42.980 T:140058455688960 DEBUG: CAddonSettings[plugin.video.youtube]: loading setting values
6432020-03-07 11:30:42.981 T:140058455688960 DEBUG: CSettingsManager: requested setting (youtube.api.config.address) was not found.
6442020-03-07 11:30:42.981 T:140058455688960 DEBUG: CAddonSettings[plugin.video.youtube]: failed to find definition for setting youtube.api.config.address. Creating a setting on-the-fly...
6452020-03-07 11:30:42.981 T:140058455688960 DEBUG: [plugin.video.youtube] HTTPServer: Request uri path |/ping|
6462020-03-07 11:30:42.981 T:140058455688960 DEBUG: [plugin.video.youtube] HTTPServer: Connection from |127.0.0.1| Local range: |True|
6472020-03-07 11:30:43.024 T:140058648622848 DEBUG: [plugin.video.youtube] HTTPServer: Ping |127.0.0.1:50153| |204|
6482020-03-07 11:30:43.245 T:140059770318016 DEBUG: ------ Window Init (DialogNotification.xml) ------
6492020-03-07 11:30:45.163 T:140059770318016 DEBUG: Keyboard: scancode: 0x74, sym: 0x0112, unicode: 0x0000, modifier: 0x0
6502020-03-07 11:30:45.163 T:140059770318016 DEBUG: HandleKey: down (0xf081) pressed, action is Down
6512020-03-07 11:30:45.169 T:140059770318016 DEBUG: Keyboard: scancode: 0x74, sym: 0x0112, unicode: 0x0000, modifier: 0x0
6522020-03-07 11:30:45.788 T:140059770318016 DEBUG: Keyboard: scancode: 0x72, sym: 0x0113, unicode: 0x0000, modifier: 0x0
6532020-03-07 11:30:45.788 T:140059770318016 DEBUG: HandleKey: right (0xf083) pressed, action is Right
6542020-03-07 11:30:45.871 T:140059770318016 DEBUG: Keyboard: scancode: 0x72, sym: 0x0113, unicode: 0x0000, modifier: 0x0
6552020-03-07 11:30:46.162 T:140059770318016 DEBUG: Keyboard: scancode: 0x24, sym: 0x000d, unicode: 0x000d, modifier: 0x0
6562020-03-07 11:30:46.203 T:140059770318016 DEBUG: Keyboard: scancode: 0x24, sym: 0x000d, unicode: 0x0000, modifier: 0x0
6572020-03-07 11:30:46.204 T:140059770318016 DEBUG: HandleKey: return (0xf00d) pressed, action is Select
6582020-03-07 11:30:46.204 T:140059770318016 DEBUG: Activating window ID: 10134
6592020-03-07 11:30:46.204 T:140059770318016 DEBUG: ------ Window Init (DialogFavourites.xml) ------
6602020-03-07 11:30:46.204 T:140059770318016 INFO: Loading skin file: DialogFavourites.xml, load type: KEEP_IN_MEMORY
6612020-03-07 11:30:46.622 T:140059770318016 DEBUG: ------ Window Deinit (DialogNotification.xml) ------
6622020-03-07 11:30:47.118 T:140059770318016 DEBUG: Keyboard: scancode: 0x74, sym: 0x0112, unicode: 0x0000, modifier: 0x0
6632020-03-07 11:30:47.118 T:140059770318016 DEBUG: HandleKey: down (0xf081) pressed, action is Down
6642020-03-07 11:30:47.164 T:140059770318016 DEBUG: Keyboard: scancode: 0x74, sym: 0x0112, unicode: 0x0000, modifier: 0x0
6652020-03-07 11:30:47.788 T:140059770318016 DEBUG: Keyboard: scancode: 0x24, sym: 0x000d, unicode: 0x000d, modifier: 0x0
6662020-03-07 11:30:47.794 T:140059770318016 DEBUG: Keyboard: scancode: 0x24, sym: 0x000d, unicode: 0x0000, modifier: 0x0
6672020-03-07 11:30:47.794 T:140059770318016 DEBUG: HandleKey: return (0xf00d) pressed, action is Select
6682020-03-07 11:30:47.795 T:140059770318016 DEBUG: Activating window ID: 10025
6692020-03-07 11:30:48.080 T:140059770318016 DEBUG: ------ Window Deinit (Home.xml) ------
6702020-03-07 11:30:48.081 T:140059770318016 DEBUG: FreeVisualisation() done
6712020-03-07 11:30:48.090 T:140059770318016 DEBUG: ------ Window Init (MyVideoNav.xml) ------
6722020-03-07 11:30:48.090 T:140059770318016 INFO: Loading skin file: MyVideoNav.xml, load type: KEEP_IN_MEMORY
6732020-03-07 11:30:48.135 T:140059770318016 DEBUG: CGUIMediaWindow::GetDirectory (smb://wired/Data/0Dokus/)
6742020-03-07 11:30:48.135 T:140059770318016 DEBUG: ParentPath = [smb://wired/Data/0Dokus/]
6752020-03-07 11:30:48.174 T:140058299303680 DEBUG: Thread BackgroundLoader start, auto delete: false
6762020-03-07 11:30:48.178 T:140058665408256 DEBUG: Version Check: Version installed {u'major': 18, u'tag': u'stable', u'minor': 5, u'revision': u'20191123-nogitfound'}
6772020-03-07 11:30:48.178 T:140058665408256 DEBUG: Version Check: Version available {u'major': u'18', u'extrainfo': u'final', u'tagversion': u'', u'tag': u'stable', u'addon_support': u'yes', u'minor': u'5', u'revision': u'20191116-37f51f6'}
6782020-03-07 11:30:48.178 T:140058665408256 DEBUG: Version Check: There is no newer stable available
6792020-03-07 11:30:48.178 T:140058665408256 INFO: CPythonInvoker(0, /home/pi/.kodi/addons/service.xbmc.versioncheck/resources/lib/runner.py): script successfully run
6802020-03-07 11:30:48.178 T:140058665408256 DEBUG: onExecutionDone(0, /home/pi/.kodi/addons/service.xbmc.versioncheck/resources/lib/runner.py)
6812020-03-07 11:30:48.205 T:140059770318016 DEBUG: ------ Window Deinit (DialogFavourites.xml) ------
6822020-03-07 11:30:48.213 T:140058665408256 INFO: Python interpreter stopped
6832020-03-07 11:30:48.213 T:140058665408256 DEBUG: Thread LanguageInvoker 140058665408256 terminating
6842020-03-07 11:30:48.223 T:140058299303680 DEBUG: Thread BackgroundLoader 140058299303680 terminating
6852020-03-07 11:30:49.063 T:140059770318016 DEBUG: Keyboard: scancode: 0x74, sym: 0x0112, unicode: 0x0000, modifier: 0x0
6862020-03-07 11:30:49.063 T:140059770318016 DEBUG: HandleKey: down (0xf081) pressed, action is Down
6872020-03-07 11:30:49.072 T:140059770318016 DEBUG: Keyboard: scancode: 0x74, sym: 0x0112, unicode: 0x0000, modifier: 0x0
6882020-03-07 11:30:49.332 T:140059770318016 DEBUG: Keyboard: scancode: 0x24, sym: 0x000d, unicode: 0x000d, modifier: 0x0
6892020-03-07 11:30:49.373 T:140059770318016 DEBUG: Keyboard: scancode: 0x24, sym: 0x000d, unicode: 0x0000, modifier: 0x0
6902020-03-07 11:30:49.373 T:140059770318016 DEBUG: HandleKey: return (0xf00d) pressed, action is Select
6912020-03-07 11:30:49.374 T:140059770318016 DEBUG: CGUIMediaWindow::GetDirectory (smb://wired/Data/0Dokus/Movies/)
6922020-03-07 11:30:49.374 T:140059770318016 DEBUG: ParentPath = [smb://wired/Data/0Dokus/]
6932020-03-07 11:30:49.374 T:140058299303680 DEBUG: Thread waiting start, auto delete: false
6942020-03-07 11:30:49.402 T:140058299303680 DEBUG: Thread waiting 140058299303680 terminating
6952020-03-07 11:30:49.405 T:140058299303680 DEBUG: Thread BackgroundLoader start, auto delete: false
6962020-03-07 11:30:49.456 T:140058299303680 DEBUG: Thread BackgroundLoader 140058299303680 terminating
6972020-03-07 11:30:50.531 T:140059770318016 DEBUG: Keyboard: scancode: 0x74, sym: 0x0112, unicode: 0x0000, modifier: 0x0
6982020-03-07 11:30:50.531 T:140059770318016 DEBUG: HandleKey: down (0xf081) pressed, action is Down
6992020-03-07 11:30:50.537 T:140059770318016 DEBUG: Keyboard: scancode: 0x74, sym: 0x0112, unicode: 0x0000, modifier: 0x0
7002020-03-07 11:30:50.748 T:140059770318016 DEBUG: Keyboard: scancode: 0x24, sym: 0x000d, unicode: 0x000d, modifier: 0x0
7012020-03-07 11:30:50.790 T:140059770318016 DEBUG: Keyboard: scancode: 0x24, sym: 0x000d, unicode: 0x0000, modifier: 0x0
7022020-03-07 11:30:50.790 T:140059770318016 DEBUG: HandleKey: return (0xf00d) pressed, action is Select
7032020-03-07 11:30:50.791 T:140059770318016 DEBUG: CGUIMediaWindow::GetDirectory (smb://wired/Data/0Dokus/Movies/Jumanji.The.Next.Level.2019.German.DL.AC3.Dubbed.1080p.BluRay.x264.iNTERNAL-PsO/)
7042020-03-07 11:30:50.791 T:140059770318016 DEBUG: ParentPath = [smb://wired/Data/0Dokus/Movies/]
7052020-03-07 11:30:50.791 T:140058299303680 DEBUG: Thread waiting start, auto delete: false
7062020-03-07 11:30:50.800 T:140058299303680 DEBUG: Thread waiting 140058299303680 terminating
7072020-03-07 11:30:50.804 T:140058299303680 DEBUG: Thread BackgroundLoader start, auto delete: false
7082020-03-07 11:30:50.807 T:140059770318016 DEBUG: [Warning] CGUITextureManager::GetTexturePath: could not find texture 'OverlayUnwatched.png'
7092020-03-07 11:30:50.811 T:140058299303680 DEBUG: Thread BackgroundLoader 140058299303680 terminating
7102020-03-07 11:30:51.493 T:140059770318016 DEBUG: Keyboard: scancode: 0x74, sym: 0x0112, unicode: 0x0000, modifier: 0x0
7112020-03-07 11:30:51.493 T:140059770318016 DEBUG: HandleKey: down (0xf081) pressed, action is Down
7122020-03-07 11:30:51.493 T:140059770318016 DEBUG: [Warning] CGUITextureManager::GetTexturePath: could not find texture 'OverlayUnwatched.png'
7132020-03-07 11:30:51.498 T:140059770318016 DEBUG: Keyboard: scancode: 0x74, sym: 0x0112, unicode: 0x0000, modifier: 0x0
7142020-03-07 11:30:51.704 T:140059770318016 DEBUG: Keyboard: scancode: 0x24, sym: 0x000d, unicode: 0x000d, modifier: 0x0
7152020-03-07 11:30:51.746 T:140059770318016 DEBUG: Keyboard: scancode: 0x24, sym: 0x000d, unicode: 0x0000, modifier: 0x0
7162020-03-07 11:30:51.746 T:140059770318016 DEBUG: HandleKey: return (0xf00d) pressed, action is Select
7172020-03-07 11:30:51.746 T:140059770318016 INFO: Loading skin file: DialogContextMenu.xml, load type: KEEP_IN_MEMORY
7182020-03-07 11:30:51.749 T:140059770318016 DEBUG: ------ Window Init (DialogContextMenu.xml) ------
7192020-03-07 11:30:52.587 T:140059770318016 DEBUG: Keyboard: scancode: 0x24, sym: 0x000d, unicode: 0x000d, modifier: 0x0
7202020-03-07 11:30:52.667 T:140059770318016 DEBUG: Keyboard: scancode: 0x24, sym: 0x000d, unicode: 0x0000, modifier: 0x0
7212020-03-07 11:30:52.667 T:140059770318016 DEBUG: HandleKey: return (0xf00d) pressed, action is Select
7222020-03-07 11:30:52.912 T:140059770318016 DEBUG: ------ Window Deinit (DialogContextMenu.xml) ------
7232020-03-07 11:30:52.914 T:140059770318016 DEBUG: OnPlayMedia smb://wired/Data/0Dokus/Movies/Jumanji.The.Next.Level.2019.German.DL.AC3.Dubbed.1080p.BluRay.x264.iNTERNAL-PsO/pso-jumanjinextlevel_bd.1080p.mkv
7242020-03-07 11:30:52.928 T:140059770318016 DEBUG: CPlayerCoreFactory::GetPlayers(smb://wired/Data/0Dokus/Movies/Jumanji.The.Next.Level.2019.German.DL.AC3.Dubbed.1080p.BluRay.x264.iNTERNAL-PsO/pso-jumanjinextlevel_bd.1080p.mkv)
7252020-03-07 11:30:52.928 T:140059770318016 DEBUG: CPlayerSelectionRule::GetPlayers: considering rule: system rules
7262020-03-07 11:30:52.928 T:140059770318016 DEBUG: CPlayerSelectionRule::GetPlayers: matches rule: system rules
7272020-03-07 11:30:52.928 T:140059770318016 DEBUG: CPlayerSelectionRule::GetPlayers: considering rule: mms/udp
7282020-03-07 11:30:52.928 T:140059770318016 DEBUG: CPlayerSelectionRule::GetPlayers: considering rule: lastfm/shout
7292020-03-07 11:30:52.928 T:140059770318016 DEBUG: CPlayerSelectionRule::GetPlayers: considering rule: rtmp
7302020-03-07 11:30:52.928 T:140059770318016 DEBUG: CPlayerSelectionRule::GetPlayers: considering rule: rtsp
7312020-03-07 11:30:52.928 T:140059770318016 DEBUG: CPlayerSelectionRule::GetPlayers: considering rule: streams
7322020-03-07 11:30:52.928 T:140059770318016 DEBUG: CPlayerSelectionRule::GetPlayers: considering rule: dvd
7332020-03-07 11:30:52.928 T:140059770318016 DEBUG: CPlayerSelectionRule::GetPlayers: considering rule: dvdimage
7342020-03-07 11:30:52.928 T:140059770318016 DEBUG: CPlayerSelectionRule::GetPlayers: considering rule: sdp/asf
7352020-03-07 11:30:52.928 T:140059770318016 DEBUG: CPlayerSelectionRule::GetPlayers: considering rule: nsv
7362020-03-07 11:30:52.928 T:140059770318016 DEBUG: CPlayerSelectionRule::GetPlayers: considering rule: radio
7372020-03-07 11:30:52.928 T:140059770318016 DEBUG: CPlayerCoreFactory::GetPlayers: matched 0 rules with players
7382020-03-07 11:30:52.928 T:140059770318016 DEBUG: CPlayerCoreFactory::GetPlayers: adding videodefaultplayer (VideoPlayer)
7392020-03-07 11:30:52.928 T:140059770318016 DEBUG: CPlayerCoreFactory::GetPlayers: for video=1, audio=0
7402020-03-07 11:30:52.928 T:140059770318016 DEBUG: CPlayerCoreFactory::GetPlayers: for video=1, audio=1
7412020-03-07 11:30:52.928 T:140059770318016 DEBUG: CPlayerCoreFactory::GetPlayers: added 1 players
7422020-03-07 11:30:52.928 T:140058299303680 DEBUG: Thread RefClock start, auto delete: false
7432020-03-07 11:30:52.928 T:140058299303680 DEBUG: CVideoSyncOML::Setup - setting up OML
7442020-03-07 11:30:52.928 T:140058299303680 DEBUG: CVideoReferenceClock: Detected refreshrate: 24.000 hertz
7452020-03-07 11:30:52.933 T:140059770318016 DEBUG: Radio UECP (RDS) Processor - new CDVDRadioRDSData
7462020-03-07 11:30:52.933 T:140059770318016 NOTICE: VideoPlayer::OpenFile: smb://wired/Data/0Dokus/Movies/Jumanji.The.Next.Level.2019.German.DL.AC3.Dubbed.1080p.BluRay.x264.iNTERNAL-PsO/pso-jumanjinextlevel_bd.1080p.mkv
7472020-03-07 11:30:52.933 T:140059770318016 DEBUG: OnPlayBackStarted: CApplication::OnPlayBackStarted
7482020-03-07 11:30:52.933 T:140058665408256 DEBUG: Thread VideoPlayer start, auto delete: false
7492020-03-07 11:30:52.933 T:140058665408256 NOTICE: Creating InputStream
7502020-03-07 11:30:52.933 T:140058288494336 DEBUG: Thread BackgroundLoader start, auto delete: false
7512020-03-07 11:30:52.942 T:140058665408256 DEBUG: CSMBFile::Open - opened smb://USERNAME:PASSWORD@wired/Data/0Dokus/Movies/Jumanji.The.Next.Level.2019.German.DL.AC3.Dubbed.1080p.BluRay.x264.iNTERNAL-PsO/pso-jumanjinextlevel_bd.1080p.mkv, fd=10000
7522020-03-07 11:30:52.942 T:140059604936448 DEBUG: Loading settings for smb://wired/Data/0Dokus/Movies/Jumanji.The.Next.Level.2019.German.DL.AC3.Dubbed.1080p.BluRay.x264.iNTERNAL-PsO/pso-jumanjinextlevel_bd.1080p.mkv
7532020-03-07 11:30:52.943 T:140058665408256 DEBUG: ScanForExternalSubtitles: Searching for subtitles...
7542020-03-07 11:30:52.946 T:140058665408256 DEBUG: ScanForExternalSubtitles: END (total time: 2 ms)
7552020-03-07 11:30:52.946 T:140058665408256 NOTICE: Creating Demuxer
7562020-03-07 11:30:52.947 T:140058665408256 DEBUG: Open - probing detected format [matroska,webm]
7572020-03-07 11:30:52.947 T:140058288494336 DEBUG: Thread BackgroundLoader 140058288494336 terminating
7582020-03-07 11:30:52.947 T:140058665408256 DEBUG: Open - avformat_find_stream_info starting
7592020-03-07 11:30:52.953 T:140059770318016 DEBUG: CVideoGUIInfo::InitCurrentItem(smb://wired/Data/0Dokus/Movies/Jumanji.The.Next.Level.2019.German.DL.AC3.Dubbed.1080p.BluRay.x264.iNTERNAL-PsO/pso-jumanjinextlevel_bd.1080p.mkv)
7602020-03-07 11:30:52.953 T:140059770318016 DEBUG: CPlayerGUIInfo::InitCurrentItem(smb://wired/Data/0Dokus/Movies/Jumanji.The.Next.Level.2019.German.DL.AC3.Dubbed.1080p.BluRay.x264.iNTERNAL-PsO/pso-jumanjinextlevel_bd.1080p.mkv)
7612020-03-07 11:30:52.964 T:140058665408256 DEBUG: Open - av_find_stream_info finished
7622020-03-07 11:30:52.964 T:140058665408256 INFO: ffmpeg[7F61F2FFD700]: Input #0, matroska,webm, from 'smb://wired/Data/0Dokus/Movies/Jumanji.The.Next.Level.2019.German.DL.AC3.Dubbed.1080p.BluRay.x264.iNTERNAL-PsO/pso-jumanjinextlevel_bd.1080p.mkv':
7632020-03-07 11:30:52.964 T:140058665408256 INFO: ffmpeg[7F61F2FFD700]: Metadata:
7642020-03-07 11:30:52.964 T:140058665408256 INFO: ffmpeg[7F61F2FFD700]: encoder : libebml v1.3.1 + libmatroska v1.4.2
7652020-03-07 11:30:52.964 T:140058665408256 INFO: ffmpeg[7F61F2FFD700]: creation_time : 2020-03-05T16:42:34.000000Z
7662020-03-07 11:30:52.964 T:140058665408256 INFO: ffmpeg[7F61F2FFD700]: Duration: 02:03:14.01, start: 0.000000, bitrate: 10373 kb/s
7672020-03-07 11:30:52.964 T:140058665408256 INFO: ffmpeg[7F61F2FFD700]: Chapter #0:0: start 0.000000, end 558.349000
7682020-03-07 11:30:52.964 T:140058665408256 INFO: ffmpeg[7F61F2FFD700]: Metadata:
7692020-03-07 11:30:52.964 T:140058665408256 INFO: ffmpeg[7F61F2FFD700]: title : Chapter 01
7702020-03-07 11:30:52.964 T:140058665408256 INFO: ffmpeg[7F61F2FFD700]: Chapter #0:1: start 558.349000, end 1060.476000
7712020-03-07 11:30:52.964 T:140058665408256 INFO: ffmpeg[7F61F2FFD700]: Metadata:
7722020-03-07 11:30:52.964 T:140058665408256 INFO: ffmpeg[7F61F2FFD700]: title : Chapter 02
7732020-03-07 11:30:52.964 T:140058665408256 INFO: ffmpeg[7F61F2FFD700]: Chapter #0:2: start 1060.476000, end 1390.681000
7742020-03-07 11:30:52.964 T:140058665408256 INFO: ffmpeg[7F61F2FFD700]: Metadata:
7752020-03-07 11:30:52.964 T:140058665408256 INFO: ffmpeg[7F61F2FFD700]: title : Chapter 03
7762020-03-07 11:30:52.964 T:140058665408256 INFO: ffmpeg[7F61F2FFD700]: Chapter #0:3: start 1390.681000, end 1872.287000
7772020-03-07 11:30:52.964 T:140058665408256 INFO: ffmpeg[7F61F2FFD700]: Metadata:
7782020-03-07 11:30:52.964 T:140058665408256 INFO: ffmpeg[7F61F2FFD700]: title : Chapter 04
7792020-03-07 11:30:52.964 T:140058665408256 INFO: ffmpeg[7F61F2FFD700]: Chapter #0:4: start 1872.287000, end 2299.130000
7802020-03-07 11:30:52.964 T:140058665408256 INFO: ffmpeg[7F61F2FFD700]: Metadata:
7812020-03-07 11:30:52.964 T:140058665408256 INFO: ffmpeg[7F61F2FFD700]: title : Chapter 05
7822020-03-07 11:30:52.964 T:140058665408256 INFO: ffmpeg[7F61F2FFD700]: Chapter #0:5: start 2299.130000, end 2559.265000
7832020-03-07 11:30:52.964 T:140058665408256 INFO: ffmpeg[7F61F2FFD700]: Metadata:
7842020-03-07 11:30:52.964 T:140058665408256 INFO: ffmpeg[7F61F2FFD700]: title : Chapter 06
7852020-03-07 11:30:52.964 T:140058665408256 INFO: ffmpeg[7F61F2FFD700]: Chapter #0:6: start 2559.265000, end 2932.972000
7862020-03-07 11:30:52.964 T:140058665408256 INFO: ffmpeg[7F61F2FFD700]: Metadata:
7872020-03-07 11:30:52.964 T:140058665408256 INFO: ffmpeg[7F61F2FFD700]: title : Chapter 07
7882020-03-07 11:30:52.964 T:140058665408256 INFO: ffmpeg[7F61F2FFD700]: Chapter #0:7: start 2932.972000, end 3431.428000
7892020-03-07 11:30:52.964 T:140058665408256 INFO: ffmpeg[7F61F2FFD700]: Metadata:
7902020-03-07 11:30:52.964 T:140058665408256 INFO: ffmpeg[7F61F2FFD700]: title : Chapter 08
7912020-03-07 11:30:52.964 T:140058665408256 INFO: ffmpeg[7F61F2FFD700]: Chapter #0:8: start 3431.428000, end 3963.001000
7922020-03-07 11:30:52.964 T:140058665408256 INFO: ffmpeg[7F61F2FFD700]: Metadata:
7932020-03-07 11:30:52.964 T:140058665408256 INFO: ffmpeg[7F61F2FFD700]: title : Chapter 09
7942020-03-07 11:30:52.964 T:140058665408256 INFO: ffmpeg[7F61F2FFD700]: Chapter #0:9: start 3963.001000, end 4396.142000
7952020-03-07 11:30:52.964 T:140058665408256 INFO: ffmpeg[7F61F2FFD700]: Metadata:
7962020-03-07 11:30:52.964 T:140058665408256 INFO: ffmpeg[7F61F2FFD700]: title : Chapter 10
7972020-03-07 11:30:52.964 T:140058665408256 INFO: ffmpeg[7F61F2FFD700]: Chapter #0:10: start 4396.142000, end 4889.093000
7982020-03-07 11:30:52.964 T:140058665408256 INFO: ffmpeg[7F61F2FFD700]: Metadata:
7992020-03-07 11:30:52.964 T:140058665408256 INFO: ffmpeg[7F61F2FFD700]: title : Chapter 11
8002020-03-07 11:30:52.964 T:140058665408256 INFO: ffmpeg[7F61F2FFD700]: Chapter #0:11: start 4889.093000, end 5313.725000
8012020-03-07 11:30:52.964 T:140058665408256 INFO: ffmpeg[7F61F2FFD700]: Metadata:
8022020-03-07 11:30:52.964 T:140058665408256 INFO: ffmpeg[7F61F2FFD700]: title : Chapter 12
8032020-03-07 11:30:52.964 T:140058665408256 INFO: ffmpeg[7F61F2FFD700]: Chapter #0:12: start 5313.725000, end 5559.512000
8042020-03-07 11:30:52.964 T:140058665408256 INFO: ffmpeg[7F61F2FFD700]: Metadata:
8052020-03-07 11:30:52.964 T:140058665408256 INFO: ffmpeg[7F61F2FFD700]: title : Chapter 13
8062020-03-07 11:30:52.964 T:140058665408256 INFO: ffmpeg[7F61F2FFD700]: Chapter #0:13: start 5559.512000, end 5825.403000
8072020-03-07 11:30:52.964 T:140058665408256 INFO: ffmpeg[7F61F2FFD700]: Metadata:
8082020-03-07 11:30:52.964 T:140058665408256 INFO: ffmpeg[7F61F2FFD700]: title : Chapter 14
8092020-03-07 11:30:52.964 T:140058665408256 INFO: ffmpeg[7F61F2FFD700]: Chapter #0:14: start 5825.403000, end 6300.586000
8102020-03-07 11:30:52.964 T:140058665408256 INFO: ffmpeg[7F61F2FFD700]: Metadata:
8112020-03-07 11:30:52.965 T:140058665408256 INFO: ffmpeg[7F61F2FFD700]: title : Chapter 15
8122020-03-07 11:30:52.965 T:140058665408256 INFO: ffmpeg[7F61F2FFD700]: Chapter #0:15: start 6300.586000, end 7394.006000
8132020-03-07 11:30:52.965 T:140058665408256 INFO: ffmpeg[7F61F2FFD700]: Metadata:
8142020-03-07 11:30:52.965 T:140058665408256 INFO: ffmpeg[7F61F2FFD700]: title : Chapter 16
8152020-03-07 11:30:52.965 T:140058665408256 INFO: ffmpeg[7F61F2FFD700]: Stream #0:0(eng): Video: h264 (High), yuv420p(tv, bt709/unknown/unknown, progressive), 1920x808, SAR 1:1 DAR 240:101, 23.98 fps, 23.98 tbr, 1k tbn, 47.95 tbc (default)
8162020-03-07 11:30:52.965 T:140058665408256 INFO: ffmpeg[7F61F2FFD700]: Metadata:
8172020-03-07 11:30:52.965 T:140058665408256 INFO: ffmpeg[7F61F2FFD700]: BPS : 8643199
8182020-03-07 11:30:52.965 T:140058665408256 INFO: ffmpeg[7F61F2FFD700]: BPS-eng : 8643199
8192020-03-07 11:30:52.965 T:140058665408256 INFO: ffmpeg[7F61F2FFD700]: DURATION : 02:03:10.383000000
8202020-03-07 11:30:52.965 T:140058665408256 INFO: ffmpeg[7F61F2FFD700]: DURATION-eng : 02:03:10.383000000
8212020-03-07 11:30:52.965 T:140058665408256 INFO: ffmpeg[7F61F2FFD700]: NUMBER_OF_FRAMES: 177192
8222020-03-07 11:30:52.965 T:140058665408256 INFO: ffmpeg[7F61F2FFD700]: NUMBER_OF_FRAMES-eng: 177192
8232020-03-07 11:30:52.965 T:140058665408256 INFO: ffmpeg[7F61F2FFD700]: NUMBER_OF_BYTES : 7984569226
8242020-03-07 11:30:52.965 T:140058665408256 INFO: ffmpeg[7F61F2FFD700]: NUMBER_OF_BYTES-eng: 7984569226
8252020-03-07 11:30:52.965 T:140058665408256 INFO: ffmpeg[7F61F2FFD700]: _STATISTICS_WRITING_APP: mkvmerge v8.3.0 ('Over the Horizon') 64bit
8262020-03-07 11:30:52.965 T:140058665408256 INFO: ffmpeg[7F61F2FFD700]: _STATISTICS_WRITING_APP-eng: mkvmerge v8.3.0 ('Over the Horizon') 64bit
8272020-03-07 11:30:52.965 T:140058665408256 INFO: ffmpeg[7F61F2FFD700]: _STATISTICS_WRITING_DATE_UTC: 2020-03-05 16:42:34
8282020-03-07 11:30:52.965 T:140058665408256 INFO: ffmpeg[7F61F2FFD700]: _STATISTICS_WRITING_DATE_UTC-eng: 2020-03-05 16:42:34
8292020-03-07 11:30:52.965 T:140058665408256 INFO: ffmpeg[7F61F2FFD700]: _STATISTICS_TAGS: BPS DURATION NUMBER_OF_FRAMES NUMBER_OF_BYTES
8302020-03-07 11:30:52.965 T:140058665408256 INFO: ffmpeg[7F61F2FFD700]: _STATISTICS_TAGS-eng: BPS DURATION NUMBER_OF_FRAMES NUMBER_OF_BYTES
8312020-03-07 11:30:52.965 T:140058665408256 INFO: ffmpeg[7F61F2FFD700]: Stream #0:1(ger): Audio: ac3, 48000 Hz, stereo, fltp, 224 kb/s (default) (forced)
8322020-03-07 11:30:52.965 T:140058665408256 INFO: ffmpeg[7F61F2FFD700]: Metadata:
8332020-03-07 11:30:52.965 T:140058665408256 INFO: ffmpeg[7F61F2FFD700]: BPS : 224000
8342020-03-07 11:30:52.965 T:140058665408256 INFO: ffmpeg[7F61F2FFD700]: BPS-eng : 224000
8352020-03-07 11:30:52.965 T:140058665408256 INFO: ffmpeg[7F61F2FFD700]: DURATION : 02:03:11.936000000
8362020-03-07 11:30:52.965 T:140058665408256 INFO: ffmpeg[7F61F2FFD700]: DURATION-eng : 02:03:11.936000000
8372020-03-07 11:30:52.965 T:140058665408256 INFO: ffmpeg[7F61F2FFD700]: NUMBER_OF_FRAMES: 230998
8382020-03-07 11:30:52.965 T:140058665408256 INFO: ffmpeg[7F61F2FFD700]: NUMBER_OF_FRAMES-eng: 230998
8392020-03-07 11:30:52.965 T:140058665408256 INFO: ffmpeg[7F61F2FFD700]: NUMBER_OF_BYTES : 206974208
8402020-03-07 11:30:52.965 T:140058665408256 INFO: ffmpeg[7F61F2FFD700]: NUMBER_OF_BYTES-eng: 206974208
8412020-03-07 11:30:52.965 T:140058665408256 INFO: ffmpeg[7F61F2FFD700]: _STATISTICS_WRITING_APP: mkvmerge v8.3.0 ('Over the Horizon') 64bit
8422020-03-07 11:30:52.965 T:140058665408256 INFO: ffmpeg[7F61F2FFD700]: _STATISTICS_WRITING_APP-eng: mkvmerge v8.3.0 ('Over the Horizon') 64bit
8432020-03-07 11:30:52.965 T:140058665408256 INFO: ffmpeg[7F61F2FFD700]: _STATISTICS_WRITING_DATE_UTC: 2020-03-05 16:42:34
8442020-03-07 11:30:52.965 T:140058665408256 INFO: ffmpeg[7F61F2FFD700]: _STATISTICS_WRITING_DATE_UTC-eng: 2020-03-05 16:42:34
8452020-03-07 11:30:52.965 T:140058665408256 INFO: ffmpeg[7F61F2FFD700]: _STATISTICS_TAGS: BPS DURATION NUMBER_OF_FRAMES NUMBER_OF_BYTES
8462020-03-07 11:30:52.965 T:140058665408256 INFO: ffmpeg[7F61F2FFD700]: _STATISTICS_TAGS-eng: BPS DURATION NUMBER_OF_FRAMES NUMBER_OF_BYTES
8472020-03-07 11:30:52.965 T:140058665408256 INFO: ffmpeg[7F61F2FFD700]: Stream #0:2(eng): Audio: dts (DTS), 48000 Hz, 5.1(side), fltp, 1536 kb/s
8482020-03-07 11:30:52.965 T:140058665408256 INFO: ffmpeg[7F61F2FFD700]: Metadata:
8492020-03-07 11:30:52.965 T:140058665408256 INFO: ffmpeg[7F61F2FFD700]: title : English
8502020-03-07 11:30:52.965 T:140058665408256 INFO: ffmpeg[7F61F2FFD700]: BPS : 1508999
8512020-03-07 11:30:52.965 T:140058665408256 INFO: ffmpeg[7F61F2FFD700]: BPS-eng : 1508999
8522020-03-07 11:30:52.965 T:140058665408256 INFO: ffmpeg[7F61F2FFD700]: DURATION : 02:03:10.390000000
8532020-03-07 11:30:52.965 T:140058665408256 INFO: ffmpeg[7F61F2FFD700]: DURATION-eng : 02:03:10.390000000
8542020-03-07 11:30:52.965 T:140058665408256 INFO: ffmpeg[7F61F2FFD700]: NUMBER_OF_FRAMES: 692849
8552020-03-07 11:30:52.965 T:140058665408256 INFO: ffmpeg[7F61F2FFD700]: NUMBER_OF_FRAMES-eng: 692849
8562020-03-07 11:30:52.965 T:140058665408256 INFO: ffmpeg[7F61F2FFD700]: NUMBER_OF_BYTES : 1394012188
8572020-03-07 11:30:52.965 T:140058665408256 INFO: ffmpeg[7F61F2FFD700]: NUMBER_OF_BYTES-eng: 1394012188
8582020-03-07 11:30:52.965 T:140058665408256 INFO: ffmpeg[7F61F2FFD700]: _STATISTICS_WRITING_APP: mkvmerge v8.3.0 ('Over the Horizon') 64bit
8592020-03-07 11:30:52.965 T:140058665408256 INFO: ffmpeg[7F61F2FFD700]: _STATISTICS_WRITING_APP-eng: mkvmerge v8.3.0 ('Over the Horizon') 64bit
8602020-03-07 11:30:52.965 T:140058665408256 INFO: ffmpeg[7F61F2FFD700]: _STATISTICS_WRITING_DATE_UTC: 2020-03-05 16:42:34
8612020-03-07 11:30:52.965 T:140058665408256 INFO: ffmpeg[7F61F2FFD700]: _STATISTICS_WRITING_DATE_UTC-eng: 2020-03-05 16:42:34
8622020-03-07 11:30:52.965 T:140058665408256 INFO: ffmpeg[7F61F2FFD700]: _STATISTICS_TAGS: BPS DURATION NUMBER_OF_FRAMES NUMBER_OF_BYTES
8632020-03-07 11:30:52.965 T:140058665408256 INFO: ffmpeg[7F61F2FFD700]: _STATISTICS_TAGS-eng: BPS DURATION NUMBER_OF_FRAMES NUMBER_OF_BYTES
8642020-03-07 11:30:52.965 T:140058665408256 INFO: ffmpeg[7F61F2FFD700]: Stream #0:3(eng): Subtitle: subrip
8652020-03-07 11:30:52.965 T:140058665408256 INFO: ffmpeg[7F61F2FFD700]: Metadata:
8662020-03-07 11:30:52.965 T:140058665408256 INFO: ffmpeg[7F61F2FFD700]: title : English
8672020-03-07 11:30:52.965 T:140058665408256 INFO: ffmpeg[7F61F2FFD700]: BPS : 57
8682020-03-07 11:30:52.965 T:140058665408256 INFO: ffmpeg[7F61F2FFD700]: BPS-eng : 57
8692020-03-07 11:30:52.965 T:140058665408256 INFO: ffmpeg[7F61F2FFD700]: DURATION : 01:52:52.349000000
8702020-03-07 11:30:52.965 T:140058665408256 INFO: ffmpeg[7F61F2FFD700]: DURATION-eng : 01:52:52.349000000
8712020-03-07 11:30:52.965 T:140058665408256 INFO: ffmpeg[7F61F2FFD700]: NUMBER_OF_FRAMES: 1557
8722020-03-07 11:30:52.965 T:140058665408256 INFO: ffmpeg[7F61F2FFD700]: NUMBER_OF_FRAMES-eng: 1557
8732020-03-07 11:30:52.965 T:140058665408256 INFO: ffmpeg[7F61F2FFD700]: NUMBER_OF_BYTES : 48757
8742020-03-07 11:30:52.965 T:140058665408256 INFO: ffmpeg[7F61F2FFD700]: NUMBER_OF_BYTES-eng: 48757
8752020-03-07 11:30:52.965 T:140058665408256 INFO: ffmpeg[7F61F2FFD700]: _STATISTICS_WRITING_APP: mkvmerge v8.3.0 ('Over the Horizon') 64bit
8762020-03-07 11:30:52.965 T:140058665408256 INFO: ffmpeg[7F61F2FFD700]: _STATISTICS_WRITING_APP-eng: mkvmerge v8.3.0 ('Over the Horizon') 64bit
8772020-03-07 11:30:52.965 T:140058665408256 INFO: ffmpeg[7F61F2FFD700]: _STATISTICS_WRITING_DATE_UTC: 2020-03-05 16:42:34
8782020-03-07 11:30:52.965 T:140058665408256 INFO: ffmpeg[7F61F2FFD700]: _STATISTICS_WRITING_DATE_UTC-eng: 2020-03-05 16:42:34
8792020-03-07 11:30:52.965 T:140058665408256 INFO: ffmpeg[7F61F2FFD700]: _STATISTICS_TAGS: BPS DURATION NUMBER_OF_FRAMES NUMBER_OF_BYTES
8802020-03-07 11:30:52.965 T:140058665408256 INFO: ffmpeg[7F61F2FFD700]: _STATISTICS_TAGS-eng: BPS DURATION NUMBER_OF_FRAMES NUMBER_OF_BYTES
8812020-03-07 11:30:52.965 T:140058665408256 DEBUG: CDVDDemuxFFmpeg::AddStream ID: 0
8822020-03-07 11:30:52.965 T:140058665408256 DEBUG: CDVDDemuxFFmpeg::AddStream ID: 1
8832020-03-07 11:30:52.965 T:140058665408256 DEBUG: CDVDDemuxFFmpeg::AddStream ID: 2
8842020-03-07 11:30:52.965 T:140058665408256 DEBUG: CDVDDemuxFFmpeg::AddStream ID: 3
8852020-03-07 11:30:52.965 T:140058665408256 NOTICE: Opening stream: 0 source: 256
8862020-03-07 11:30:52.965 T:140058665408256 NOTICE: Creating video codec with codec id: 27
8872020-03-07 11:30:52.965 T:140058665408256 NOTICE: CDVDVideoCodecFFmpeg::Open() Using codec: H.264 / AVC / MPEG-4 AVC / MPEG-4 part 10
8882020-03-07 11:30:52.965 T:140058665408256 DEBUG: CDVDVideoCodecFFmpeg - Updated codec: ff-h264
8892020-03-07 11:30:52.965 T:140058665408256 DEBUG: CVideoPlayerVideo::OpenStream - open stream with codec id: 27
8902020-03-07 11:30:52.965 T:140058665408256 NOTICE: Creating video thread
8912020-03-07 11:30:52.965 T:140058665408256 NOTICE: Opening stream: 1 source: 256
8922020-03-07 11:30:52.965 T:140058288494336 DEBUG: Thread VideoPlayerVideo start, auto delete: false
8932020-03-07 11:30:52.965 T:140058665408256 NOTICE: Finding audio codec for: 86019
8942020-03-07 11:30:52.965 T:140058288494336 NOTICE: running thread: video_thread
8952020-03-07 11:30:52.965 T:140058288494336 DEBUG: CVideoPlayerVideo - CDVDMsg::GENERAL_PAUSE: 0
8962020-03-07 11:30:52.965 T:140058665408256 NOTICE: CDVDAudioCodecFFmpeg::Open() Successful opened audio decoder ac3
8972020-03-07 11:30:52.965 T:140058665408256 NOTICE: Creating audio thread
8982020-03-07 11:30:52.965 T:140058665408256 NOTICE: Opening stream: 3 source: 256
8992020-03-07 11:30:52.965 T:140058665408256 DEBUG: Prepare - Start position set to last stopped position: 2648000
9002020-03-07 11:30:52.965 T:140058212431616 DEBUG: Thread VideoPlayerAudio start, auto delete: false
9012020-03-07 11:30:52.966 T:140058212431616 NOTICE: running thread: CVideoPlayerAudio::Process()
9022020-03-07 11:30:52.966 T:140058212431616 DEBUG: CVideoPlayerAudio - CDVDMsg::GENERAL_PAUSE: 0
9032020-03-07 11:30:52.967 T:140058665408256 DEBUG: SeekTime - seek ended up on time 2647979
9042020-03-07 11:30:52.967 T:140058665408256 DEBUG: CVideoPlayer::FlushBuffers - flushing buffers
9052020-03-07 11:30:52.976 T:140058212431616 DEBUG: CDVDAudio::Pause - pausing audio stream
9062020-03-07 11:30:52.976 T:140058212431616 DEBUG: CVideoPlayerAudio - CDVDMsg::GENERAL_SYNCHRONIZE
9072020-03-07 11:30:52.976 T:140058288494336 DEBUG: CVideoPlayerVideo - CDVDMsg::GENERAL_SYNCHRONIZE
9082020-03-07 11:30:52.976 T:140058665408256 DEBUG: CVideoPlayer::SetCaching - caching state 2
9092020-03-07 11:30:52.976 T:140058665408256 DEBUG: CDVDClock::SetSpeedAdjust - adjusted:0.000000
9102020-03-07 11:30:52.976 T:140058665408256 DEBUG: Prepare - starting demuxer from: 2648000
9112020-03-07 11:30:52.976 T:140058665408256 DEBUG: CVideoPlayer::HandleMessages - player 2 reported state: 0
9122020-03-07 11:30:52.976 T:140058665408256 DEBUG: CVideoPlayer::HandleMessages - player 1 reported state: 0
9132020-03-07 11:30:52.976 T:140059604936448 DEBUG: OnAVChange: CApplication::OnAVChange
9142020-03-07 11:30:52.978 T:140058665408256 DEBUG: CVideoPlayer::SetCaching - caching state 1
9152020-03-07 11:30:52.978 T:140058288494336 INFO: CVideoPlayerVideo - Stillframe left, switching to normal playback
9162020-03-07 11:30:52.978 T:140058665408256 DEBUG: CDVDClock::SetSpeedAdjust - adjusted:0.000000
9172020-03-07 11:30:52.980 T:140058288494336 DEBUG: libva info: VA-API version 1.4.0
9182020-03-07 11:30:52.980 T:140058288494336 DEBUG: libva info: va_getDriverName() returns 0
9192020-03-07 11:30:52.980 T:140058288494336 DEBUG: libva info: Trying to open /usr/lib/x86_64-linux-gnu/dri/i965_drv_video.so
9202020-03-07 11:30:52.980 T:140058288494336 DEBUG: libva info: Found init function __vaDriverInit_1_4
9212020-03-07 11:30:52.981 T:140058665408256 DEBUG: CVideoPlayer::CheckContinuity - wrapback :2, prev:2648146000.000000, curr:2647979000.000000, diff:-167000.000000
9222020-03-07 11:30:52.981 T:140058288494336 DEBUG: libva info: va_openDriver() returns 0
9232020-03-07 11:30:52.982 T:140058204038912 DEBUG: Thread Vaapi-Output start, auto delete: false
9242020-03-07 11:30:52.982 T:140058204038912 NOTICE: COutput::OnStartup: Output Thread created
9252020-03-07 11:30:52.982 T:140058204038912 DEBUG: SECTION:LoadDLL(special://xbmcbin/system/libsse4-x86_64-linux.so)
9262020-03-07 11:30:52.982 T:140058204038912 DEBUG: Loading: /usr/lib/x86_64-linux-gnu/kodi/system/libsse4-x86_64-linux.so
9272020-03-07 11:30:52.986 T:140058212431616 DEBUG: CDVDAudio::Pause - pausing audio stream
9282020-03-07 11:30:52.986 T:140058212431616 DEBUG: Previous line repeats 1 times.
9292020-03-07 11:30:52.986 T:140058212431616 NOTICE: Creating audio stream (codec id: 86019, channels: 2, sample rate: 48000, no pass-through)
9302020-03-07 11:30:52.986 T:140058212431616 DEBUG: CVideoPlayerAudio:: synctype set to 1: resample
9312020-03-07 11:30:52.986 T:140059680433920 INFO: CActiveAESink::OpenSink - initialize sink
9322020-03-07 11:30:52.991 T:140058288494336 DEBUG: CDVDVideoCodecFFmpeg - Updated codec: ff-h264-vaapi
9332020-03-07 11:30:53.012 T:140058288494336 DEBUG: CRenderManager::Configure - change configuration. 1920x808. display: 1920x808. framerate: 23.98.
9342020-03-07 11:30:53.053 T:140059770318016 DEBUG: ------ Window Init (DialogBusy.xml) ------
9352020-03-07 11:30:53.055 T:140059770318016 DEBUG: Inhibiting OS screen saver
9362020-03-07 11:30:53.055 T:140058188756736 DEBUG: Thread Timer start, auto delete: false
9372020-03-07 11:30:53.056 T:140058665408256 DEBUG: CVideoPlayer::SetCaching - caching state 2
9382020-03-07 11:30:53.056 T:140058665408256 DEBUG: CDVDClock::SetSpeedAdjust - adjusted:0.000000
9392020-03-07 11:30:53.060 T:140059770318016 DEBUG: ------ Window Init (DialogSeekBar.xml) ------
9402020-03-07 11:30:53.060 T:140059770318016 DEBUG: DeleteRenderer - deleting renderer
9412020-03-07 11:30:53.061 T:140059770318016 DEBUG: LinuxRendererGL: Cleaning up GL resources
9422020-03-07 11:30:53.061 T:140059770318016 DEBUG: GL: Requested render method: 0
9432020-03-07 11:30:53.061 T:140059770318016 DEBUG: GL: BaseYUV2RGBGLSLShader: defines:
944 #define XBMC_texture_rectangle 0
945 #define XBMC_texture_rectangle_hack 0
946 #define XBMC_STRETCH 0
947 #define XBMC_NV12
9482020-03-07 11:30:53.061 T:140059770318016 NOTICE: GL: Selecting YUV 2 RGB shader
9492020-03-07 11:30:53.061 T:140059770318016 NOTICE: GL: NPOT texture support detected
9502020-03-07 11:30:53.061 T:140059770318016 NOTICE: GL: Using GL_ARB_pixel_buffer_object
9512020-03-07 11:30:53.061 T:140059770318016 NOTICE: Using GL_TEXTURE_2D
9522020-03-07 11:30:53.061 T:140059770318016 DEBUG: CRenderManager::Configure - 4
9532020-03-07 11:30:53.061 T:140058288494336 DEBUG: CVideoReferenceClock: Clock speed 100.10 %
9542020-03-07 11:30:53.064 T:140059770318016 DEBUG: GL: Requested render method: 0
9552020-03-07 11:30:53.064 T:140059770318016 DEBUG: GL: BaseYUV2RGBGLSLShader: defines:
956 #define XBMC_texture_rectangle 0
957 #define XBMC_texture_rectangle_hack 0
958 #define XBMC_STRETCH 0
959 #define XBMC_NV12
9602020-03-07 11:30:53.064 T:140059770318016 NOTICE: GL: Selecting YUV 2 RGB shader
9612020-03-07 11:30:53.064 T:140059770318016 NOTICE: GL: NPOT texture support detected
9622020-03-07 11:30:53.064 T:140059770318016 NOTICE: GL: Using GL_ARB_pixel_buffer_object
9632020-03-07 11:30:53.066 T:140058665408256 DEBUG: CVideoPlayer::HandleMessages - player started 2
9642020-03-07 11:30:53.066 T:140059637131008 DEBUG: OnAVChange: CApplication::OnAVChange
9652020-03-07 11:30:53.138 T:140059680433920 DEBUG: CActiveAESink::OpenSink - trying to open device PULSE:alsa_output.pci-0000_00_1f.3.hdmi-stereo-extra1
9662020-03-07 11:30:53.139 T:140059680433920 DEBUG: PulseAudio: Context authorizing
9672020-03-07 11:30:53.139 T:140059680433920 DEBUG: PulseAudio: Context setting name
9682020-03-07 11:30:53.139 T:140059680433920 DEBUG: PulseAudio: Context ready
9692020-03-07 11:30:53.154 T:140059680433920 DEBUG: PulseAudio: Stream ready
9702020-03-07 11:30:53.154 T:140059680433920 NOTICE: PulseAudio: Opened device alsa_output.pci-0000_00_1f.3.hdmi-stereo-extra1 in passthrough mode with Buffersize 150 ms
9712020-03-07 11:30:53.154 T:140059680433920 DEBUG: CActiveAESink::OpenSink - PULSE Initialized:
9722020-03-07 11:30:53.154 T:140059680433920 DEBUG: Output Device : Internes Audio Digital Stereo (HDMI 2)
9732020-03-07 11:30:53.154 T:140059680433920 DEBUG: Sample Rate : 48000
9742020-03-07 11:30:53.154 T:140059672041216 DEBUG: Sink changed
9752020-03-07 11:30:53.154 T:140059680433920 DEBUG: Sample Format : AE_FMT_S16NE
9762020-03-07 11:30:53.154 T:140059680433920 DEBUG: Channel Count : 2
9772020-03-07 11:30:53.154 T:140059680433920 DEBUG: Channel Layout: FL, FR
9782020-03-07 11:30:53.154 T:140059680433920 DEBUG: Frames : 2400
9792020-03-07 11:30:53.154 T:140059680433920 DEBUG: Frame Size : 4
9802020-03-07 11:30:53.154 T:140059672041216 DEBUG: Sink changed
9812020-03-07 11:30:53.154 T:140059688826624 NOTICE: CAEEncoderFFmpeg::Initialize - AC3 encoder ready
9822020-03-07 11:30:53.156 T:140059688826624 DEBUG: CActiveAE::ClearDiscardedBuffers - buffer pool deleted
9832020-03-07 11:30:53.156 T:140058212431616 DEBUG: Previous line repeats 1 times.
9842020-03-07 11:30:53.156 T:140058212431616 DEBUG: CDVDAudio::Pause - pausing audio stream
9852020-03-07 11:30:53.157 T:140058665408256 DEBUG: CVideoPlayer::HandleMessages - player started 1
9862020-03-07 11:30:53.157 T:140058665408256 DEBUG: CVideoPlayer::SetCaching - caching state 3
9872020-03-07 11:30:53.157 T:140059604936448 DEBUG: OnAVChange: CApplication::OnAVChange
9882020-03-07 11:30:53.157 T:140058665408256 DEBUG: CDVDClock::SetSpeedAdjust - adjusted:0.000000
9892020-03-07 11:30:53.157 T:140058665408256 DEBUG: CVideoPlayer::SetCaching - caching state 0
9902020-03-07 11:30:53.157 T:140058665408256 DEBUG: CDVDClock::SetSpeedAdjust - adjusted:0.000000
9912020-03-07 11:30:53.157 T:140058665408256 DEBUG: VideoPlayer::Sync - Audio - pts: 2648278000.000000, cache: 445807.645650, totalcache: 750000.000000
9922020-03-07 11:30:53.157 T:140058665408256 DEBUG: VideoPlayer::Sync - Video - pts: 2647979000.000000, cache: 50000.000000, totalcache: 100000.000000
9932020-03-07 11:30:53.157 T:140058212431616 DEBUG: CVideoPlayerAudio - CDVDMsg::GENERAL_RESYNC(2647832192.354350), level: 97, cache: 445565.082650
9942020-03-07 11:30:53.157 T:140058212431616 DEBUG: CDVDAudio::Resume - resume audio stream
9952020-03-07 11:30:53.157 T:140059604936448 DEBUG: OnAVStarted: CApplication::OnAVStarted
9962020-03-07 11:30:53.157 T:140058288494336 DEBUG: CVideoPlayerVideo - CDVDMsg::GENERAL_RESYNC(2647832192.354350)
9972020-03-07 11:30:53.159 T:140059688826624 DEBUG: ActiveAE - start sync of audio stream
9982020-03-07 11:30:53.170 T:140059770318016 DEBUG: Activating window ID: 12005
9992020-03-07 11:30:53.170 T:140059770318016 DEBUG: ------ Window Deinit (MyVideoNav.xml) ------
10002020-03-07 11:30:53.170 T:140059770318016 DEBUG: FreeVisualisation() done
10012020-03-07 11:30:53.170 T:140059770318016 DEBUG: ------ Window Init (VideoFullScreen.xml) ------
10022020-03-07 11:30:53.170 T:140059770318016 INFO: Loading skin file: VideoFullScreen.xml, load type: KEEP_IN_MEMORY
10032020-03-07 11:30:53.184 T:140059637131008 DEBUG: OnAVChange: CApplication::OnAVChange
10042020-03-07 11:30:53.203 T:140059770318016 DEBUG: ------ Window Deinit (DialogBusy.xml) ------
10052020-03-07 11:30:53.308 T:140059688826624 DEBUG: ActiveAE::SyncStream - average error of 21.058498, start adjusting
10062020-03-07 11:30:53.308 T:140059688826624 DEBUG: ActiveAE::SyncStream - average error -10.941502 below threshold of 30.000000
10072020-03-07 11:30:53.330 T:140058288494336 NOTICE: CDVDVideoCodecFFmpeg::CDropControl: calculated diff time: 41636
10082020-03-07 11:30:53.369 T:140059770318016 DEBUG: ------ Window Deinit (DialogSeekBar.xml) ------
10092020-03-07 11:30:54.076 T:140059770318016 DEBUG: Keyboard: scancode: 0x25, sym: 0x0132, unicode: 0x0000, modifier: 0x40
10102020-03-07 11:30:54.076 T:140059770318016 DEBUG: HandleKey: ctrl-leftctrl (0x1f0d0) pressed, action is
10112020-03-07 11:30:54.076 T:140059770318016 DEBUG: Keyboard: scancode: 0x32, sym: 0x0130, unicode: 0x0000, modifier: 0x41
10122020-03-07 11:30:54.076 T:140059770318016 DEBUG: HandleKey: ctrl-shift-leftshift (0x3f0d2) pressed, action is
10132020-03-07 11:30:54.160 T:140059770318016 DEBUG: Keyboard: scancode: 0x20, sym: 0x006f, unicode: 0x000f, modifier: 0x41
10142020-03-07 11:30:54.160 T:140059770318016 DEBUG: HandleKey: ctrl-shift-o (0x3f04f) pressed, action is PlayerDebug
10152020-03-07 11:30:54.245 T:140059770318016 DEBUG: Keyboard: scancode: 0x20, sym: 0x006f, unicode: 0x0000, modifier: 0x41
10162020-03-07 11:30:54.245 T:140059770318016 DEBUG: Keyboard: scancode: 0x25, sym: 0x0132, unicode: 0x0000, modifier: 0x1
10172020-03-07 11:30:54.245 T:140059770318016 DEBUG: Keyboard: scancode: 0x32, sym: 0x0130, unicode: 0x0000, modifier: 0x0
10182020-03-07 11:30:54.911 T:140059770318016 DEBUG: Keyboard: scancode: 0x25, sym: 0x0132, unicode: 0x0000, modifier: 0x40
10192020-03-07 11:30:54.911 T:140059770318016 DEBUG: HandleKey: ctrl-leftctrl (0x1f0d0) pressed, action is
10202020-03-07 11:30:54.911 T:140059770318016 DEBUG: Keyboard: scancode: 0x32, sym: 0x0130, unicode: 0x0000, modifier: 0x41
10212020-03-07 11:30:54.911 T:140059770318016 DEBUG: HandleKey: ctrl-shift-leftshift (0x3f0d2) pressed, action is
10222020-03-07 11:30:54.953 T:140059770318016 DEBUG: Keyboard: scancode: 0x20, sym: 0x006f, unicode: 0x000f, modifier: 0x41
10232020-03-07 11:30:54.953 T:140059770318016 DEBUG: HandleKey: ctrl-shift-o (0x3f04f) pressed, action is PlayerDebug
10242020-03-07 11:30:55.035 T:140059770318016 DEBUG: Keyboard: scancode: 0x20, sym: 0x006f, unicode: 0x0000, modifier: 0x41
10252020-03-07 11:30:55.076 T:140059770318016 DEBUG: Keyboard: scancode: 0x25, sym: 0x0132, unicode: 0x0000, modifier: 0x1
10262020-03-07 11:30:55.076 T:140059770318016 DEBUG: Keyboard: scancode: 0x32, sym: 0x0130, unicode: 0x0000, modifier: 0x0
10272020-03-07 11:30:56.952 T:140059770318016 DEBUG: Keyboard: scancode: 0x41, sym: 0x0020, unicode: 0x0020, modifier: 0x0
10282020-03-07 11:30:56.952 T:140059770318016 DEBUG: HandleKey: space (0xf020) pressed, action is Pause
10292020-03-07 11:30:56.952 T:140059770318016 DEBUG: ------ Window Init (DialogSeekBar.xml) ------
10302020-03-07 11:30:56.998 T:140058212431616 DEBUG: CDVDAudio::Pause - pausing audio stream
10312020-03-07 11:30:57.036 T:140059770318016 DEBUG: Keyboard: scancode: 0x41, sym: 0x0020, unicode: 0x0000, modifier: 0x0
10322020-03-07 11:30:57.327 T:140059770318016 DEBUG: Uninhibiting OS screen saver
10332020-03-07 11:30:57.327 T:140058188756736 DEBUG: Thread Timer 140058188756736 terminating